M I D A S
Marine Information and Data Acquisition System
Tripno 1863 of the Zeeleeuw from 2010-04-22 06:42:15 to 2010-04-22 15:06:58
Back to CruiseResearch ActivitiesStationsMapUnderway DataData graphs

EquipmentUnitsComment
TimeDGPSUTC
LatitudeDGPSDM.mWGS84
LongitudeDGPSDM.mWGS84
TemperatureSBE03/SBE38deg celciusITS90
ConductivitySBE21S/mITS90
SalinitySBE21 Practical Salinity Units
ChlorophylAChelsea fluorimeterg/lCalibrated in Aceton
Missing or incorrect values are displayed as -999
Sea surface data collected by the RV Zeeleeuw from 2010-04-22 06:23:39 to 2010-04-22 15:15:14
                                                                                    Next 1000 lines
Time Latitude Longitude Temperature Conductivity Salinity ChlorophylA
2010-04-22 06:23:49 51°13.662 2°55.957 17.7329 0.00827 0.04831 -0.965744
2010-04-22 06:23:54 51°13.662 2°55.955 17.6658 0.00827 0.048311 -1.000568
2010-04-22 06:23:59 51°13.663 2°55.952 17.7628 0.00827 0.048311 -1.000568
2010-04-22 06:24:03 51°13.663 2°55.949 17.7046 0.00827 0.048312 -1.000568
2010-04-22 06:24:08 51°13.664 2°55.945 17.7689 0.00827 0.048312 -1.000568
2010-04-22 06:24:13 51°13.665 2°55.94 17.7435 0.00827 0.048313 -1.000568
2010-04-22 06:24:19 51°13.667 2°55.932 17.7477 0.00827 0.048314 -1.000568
2010-04-22 06:24:25 51°13.669 2°55.923 17.7722 0.00827 0.048315 -0.965744
2010-04-22 06:24:31 51°13.672 2°55.914 17.791 0.00827 0.048315 -0.965744
2010-04-22 06:24:36 51°13.674 2°55.906 17.8014 0.00827 0.048315 -0.965744
2010-04-22 06:24:41 51°13.676 2°55.898 17.7865 0.00827 0.048317 -0.965744
2010-04-22 06:24:46 51°13.678 2°55.89 17.7808 0.00827 0.048317 -1.000568
2010-04-22 06:24:51 51°13.68 2°55.881 17.7808 0.00827 0.048317 -1.000568
2010-04-22 06:24:56 51°13.682 2°55.872 17.7767 0.00827 0.048316 -1.000568
2010-04-22 06:25:01 51°13.684 2°55.863 17.7426 0.00827 0.048316 -1.000568
2010-04-22 06:25:06 51°13.686 2°55.854 17.7697 0.00827 0.048315 -1.000568
2010-04-22 06:25:11 51°13.688 2°55.845 17.7704 0.00827 0.048315 -1.000568
2010-04-22 06:25:16 51°13.689 2°55.837 17.7753 0.00827 0.048315 -1.000568
2010-04-22 06:25:21 51°13.691 2°55.828 17.7984 0.00827 0.048316 -1.000568
2010-04-22 06:25:26 51°13.693 2°55.819 17.7856 0.00827 0.048316 -0.965744
2010-04-22 06:25:31 51°13.695 2°55.811 17.7799 0.00827 0.048316 -0.965744
2010-04-22 06:25:36 51°13.697 2°55.802 17.8131 0.00827 0.048318 -0.965744
2010-04-22 06:25:41 51°13.699 2°55.794 17.8182 0.00827 0.048318 -1.000568
2010-04-22 06:25:46 51°13.702 2°55.786 17.7929 0.00827 0.048319 -1.000568
2010-04-22 06:25:51 51°13.704 2°55.778 17.7647 0.00827 0.04832 -1.000568
2010-04-22 06:25:56 51°13.706 2°55.77 17.7735 0.00827 0.04832 -0.965744
2010-04-22 06:26:01 51°13.709 2°55.763 17.7704 0.00827 0.04832 -0.965744
2010-04-22 06:26:06 51°13.711 2°55.756 17.774 0.00827 0.048321 -1.000568
2010-04-22 06:26:11 51°13.714 2°55.75 17.7727 0.00827 0.048322 -1.000568
2010-04-22 06:26:16 51°13.716 2°55.743 17.7854 0.00827 0.048322 -1.000568
2010-04-22 06:26:21 51°13.717 2°55.737 17.8029 0.00827 0.048322 -0.965744
2010-04-22 06:26:26 51°13.719 2°55.733 17.761 0.00827 0.048324 -1.000568
2010-04-22 06:26:31 51°13.721 2°55.728 17.793 0.00827 0.048324 -1.000568
2010-04-22 06:26:36 51°13.722 2°55.725 17.7877 0.00827 0.048324 -1.000568
2010-04-22 06:26:41 51°13.723 2°55.723 17.7528 0.00827 0.048325 -0.965744
2010-04-22 06:26:46 51°13.724 2°55.721 17.6073 0.008166 0.047782 -1.000568
2010-04-22 06:26:51 51°13.725 2°55.719 17.6222 0.00827 0.048327 -1.000568
2010-04-22 06:26:55 51°13.726 2°55.717 17.4269 0.008166 0.047781 -1.000568
2010-04-22 06:27:01 51°13.729 2°55.713 17.6279 0.008166 0.047781 -1.000568
2010-04-22 06:27:05 51°13.731 2°55.71 17.5976 0.008166 0.047781 -1.035392
2010-04-22 06:27:11 51°13.735 2°55.704 17.6718 0.008166 0.047781 -1.000568
2010-04-22 06:27:16 51°13.74 2°55.7 17.6682 0.008166 0.047779 -0.965744
2010-04-22 06:27:21 51°13.745 2°55.695 17.6936 0.008166 0.047779 -0.965744
2010-04-22 06:27:26 51°13.75 2°55.69 17.709 0.008166 0.04778 -1.000568
2010-04-22 06:27:31 51°13.756 2°55.685 17.6975 0.008166 0.04778 -1.000568
2010-04-22 06:27:36 51°13.762 2°55.68 17.7186 0.008166 0.047782 -1.000568
2010-04-22 06:27:41 51°13.769 2°55.674 17.7256 0.008166 0.047784 -1.000568
2010-04-22 06:27:46 51°13.776 2°55.669 17.7213 0.008166 0.047785 -1.000568
2010-04-22 06:27:51 51°13.783 2°55.663 17.7368 0.008166 0.047788 -0.965744
2010-04-22 06:27:56 51°13.79 2°55.658 17.7317 0.008166 0.04779 -1.000568
2010-04-22 06:28:01 51°13.797 2°55.653 17.7289 0.008166 0.04779 -1.000568
2010-04-22 06:28:06 51°13.805 2°55.647 17.7423 0.008166 0.04779 -1.000568
2010-04-22 06:28:11 51°13.812 2°55.643 17.7575 0.008166 0.04779 -1.000568
2010-04-22 06:28:16 51°13.819 2°55.638 17.7641 0.008166 0.04779 -1.000568
2010-04-22 06:28:21 51°13.825 2°55.634 17.755 0.008166 0.04779 -1.000568
2010-04-22 06:28:26 51°13.832 2°55.63 17.7792 0.008166 0.047791 -1.000568
2010-04-22 06:28:31 51°13.839 2°55.626 17.7452 0.008166 0.047791 -1.000568
2010-04-22 06:28:36 51°13.845 2°55.623 17.7526 0.008166 0.047791 -0.965744
2010-04-22 06:28:41 51°13.852 2°55.621 17.7522 0.008166 0.047792 -1.000568
2010-04-22 06:28:46 51°13.858 2°55.618 17.7571 0.008166 0.047793 -1.000568
2010-04-22 06:28:51 51°13.864 2°55.617 17.7655 0.008166 0.047793 -1.000568
2010-04-22 06:28:55 51°13.869 2°55.615 17.7627 0.008166 0.047794 -1.000568
2010-04-22 06:29:01 51°13.876 2°55.615 17.7667 0.008166 0.047794 -1.000568
2010-04-22 06:29:06 51°13.882 2°55.614 17.7706 0.008166 0.047794 -0.965744
2010-04-22 06:29:11 51°13.888 2°55.615 17.7595 0.008166 0.047795 -1.000568
2010-04-22 06:29:15 51°13.892 2°55.615 17.7295 0.008166 0.047795 -1.000568
2010-04-22 06:29:21 51°13.899 2°55.616 17.7225 0.008166 0.047795 -0.965744
2010-04-22 06:29:26 51°13.903 2°55.618 17.7575 0.008166 0.047796 -1.000568
2010-04-22 06:29:31 51°13.908 2°55.62 17.7382 0.008166 0.047796 -1.000568
2010-04-22 06:29:36 51°13.913 2°55.622 17.7412 0.008166 0.047796 -1.000568
2010-04-22 06:29:41 51°13.917 2°55.625 17.7521 0.008166 0.047796 -1.000568
2010-04-22 06:29:46 51°13.921 2°55.628 17.6157 0.008166 0.047797 -1.000568
2010-04-22 06:29:51 51°13.925 2°55.631 17.7014 0.008166 0.047797 -0.965744
2010-04-22 06:29:55 51°13.928 2°55.634 17.749 0.008166 0.047799 -1.000568
2010-04-22 06:30:01 51°13.933 2°55.639 17.7355 0.008166 0.047799 -1.000568
2010-04-22 06:30:06 51°13.936 2°55.643 17.7499 0.008166 0.047797 -1.000568
2010-04-22 06:30:11 51°13.94 2°55.647 17.7607 0.008166 0.047797 -1.000568
2010-04-22 06:30:16 51°13.942 2°55.651 17.7169 0.008166 0.047798 -1.000568
2010-04-22 06:30:21 51°13.945 2°55.654 17.7168 0.008166 0.047799 -1.000568
2010-04-22 06:30:26 51°13.947 2°55.657 17.7498 0.008166 0.047798 -1.035392
2010-04-22 06:30:31 51°13.948 2°55.659 17.7968 0.008166 0.047798 -1.035392
2010-04-22 06:30:36 51°13.949 2°55.66 17.7754 0.008166 0.047799 -0.965744
2010-04-22 06:30:41 51°13.949 2°55.659 17.7803 0.008166 0.0478 -1.000568
2010-04-22 06:30:46 51°13.949 2°55.657 17.7906 0.008166 0.0478 -0.965744
2010-04-22 06:30:51 51°13.949 2°55.654 17.6541 0.008166 0.047801 -1.000568
2010-04-22 06:30:55 51°13.95 2°55.65 17.5216 0.008166 0.047801 -1.000568
2010-04-22 06:31:01 51°13.95 2°55.644 17.6167 0.008166 0.047801 -1.000568
2010-04-22 06:31:06 51°13.951 2°55.638 17.6739 0.008062 0.047257 -1.000568
2010-04-22 06:31:11 51°13.953 2°55.631 17.3806 0.008062 0.047251 -1.000568
2010-04-22 06:31:15 51°13.955 2°55.626 16.038 0.008062 0.047253 -0.965744
2010-04-22 06:31:21 51°13.958 2°55.616 14.2324 0.008062 0.047267 -0.965744
2010-04-22 06:31:26 51°13.962 2°55.608 13.3709 0.00931 0.054277 -0.93092
2010-04-22 06:31:31 51°13.966 2°55.599 12.3006 0.00931 0.054277 -0.93092
2010-04-22 06:31:35 51°13.971 2°55.592 11.9551 0.009518 0.055419 -0.896096
2010-04-22 06:31:40 51°13.977 2°55.583 11.7493 3.885676 29.075533 0.253098
2010-04-22 06:31:45 51°13.983 2°55.574 11.4686 3.938943 29.38643 1.088875
2010-04-22 06:31:51 51°13.992 2°55.563 11.3071 3.984098 30.085151 1.64606
2010-04-22 06:31:55 51°13.999 2°55.555 11.1961 3.906787 30.081355 3.735503
2010-04-22 06:32:00 51°14.007 2°55.547 11.0624 3.906787 30.081355 3.735503
2010-04-22 06:32:05 51°14.015 2°55.539 11.053 3.767577 29.793076 3.213142
2010-04-22 06:32:11 51°14.025 2°55.529 10.9301 3.671093 29.614669 3.004198
2010-04-22 06:32:15 51°14.033 2°55.523 10.8799 3.511787 29.026719 3.039022
2010-04-22 06:32:20 51°14.042 2°55.515 10.8113 3.45107 28.920615 3.004198
2010-04-22 06:32:25 51°14.051 2°55.507 10.7819 3.387721 28.650946 3.039022
2010-04-22 06:32:30 51°14.06 2°55.499 10.7628 3.387721 28.650946 3.039022
2010-04-22 06:32:35 51°14.069 2°55.491 10.7866 3.340714 28.489701 3.039022
2010-04-22 06:32:39 51°14.077 2°55.484 10.6676 3.310678 28.427628 2.93455
2010-04-22 06:32:45 51°14.088 2°55.475 10.6461 3.27959 28.295705 2.864902
2010-04-22 06:32:50 51°14.097 2°55.467 10.6369 3.253349 28.131839 2.725606
2010-04-22 06:32:55 51°14.107 2°55.458 10.6096 3.23828 28.059306 2.655957
2010-04-22 06:33:00 51°14.116 2°55.449 10.6319 3.23828 28.059306 2.655957
2010-04-22 06:33:06 51°14.127 2°55.439 10.5862 3.229534 28.077535 2.655957
2010-04-22 06:33:11 51°14.137 2°55.431 10.5941 3.219313 28.039798 2.621133
2010-04-22 06:33:15 51°14.144 2°55.424 10.528 3.209303 27.993667 2.516661
2010-04-22 06:33:21 51°14.156 2°55.414 10.5362 3.197606 27.922642 2.516661
2010-04-22 06:33:26 51°14.165 2°55.405 10.5352 3.175794 27.760354 2.481837
2010-04-22 06:33:31 51°14.175 2°55.397 10.5044 3.175794 27.760354 2.481837
2010-04-22 06:33:35 51°14.183 2°55.39 10.5023 3.168208 27.71238 2.412189
2010-04-22 06:33:40 51°14.192 2°55.381 10.484 3.156196 27.629366 2.377365
2010-04-22 06:33:46 51°14.204 2°55.37 10.4776 3.154827 27.636613 2.412189
2010-04-22 06:33:51 51°14.214 2°55.36 10.482 3.146924 27.575761 2.516661
2010-04-22 06:33:55 51°14.222 2°55.352 10.4984 3.146398 27.605645 2.621133
2010-04-22 06:34:00 51°14.232 2°55.341 10.4845 3.146398 27.605645 2.621133
2010-04-22 06:34:05 51°14.241 2°55.331 10.4373 3.147662 27.625765 2.795254
2010-04-22 06:34:10 51°14.251 2°55.32 10.4614 3.149243 27.656838 2.899726
2010-04-22 06:34:15 51°14.261 2°55.31 10.4986 3.13249 27.517179 2.969374
2010-04-22 06:34:19 51°14.269 2°55.302 10.4661 3.153774 27.734236 3.039022
2010-04-22 06:34:24 51°14.279 2°55.291 10.4525 3.16526 27.866082 3.039022
2010-04-22 06:34:29 51°14.289 2°55.281 10.4667 3.16526 27.866082 3.039022
2010-04-22 06:34:34 51°14.299 2°55.269 10.45 3.167473 27.890069 3.039022
2010-04-22 06:34:39 51°14.309 2°55.257 10.47 3.164101 27.863364 3.073846
2010-04-22 06:34:43 51°14.318 2°55.247 10.429 3.171477 27.945003 2.969374
2010-04-22 06:34:49 51°14.331 2°55.23 10.4358 3.174217 27.977842 2.899726
2010-04-22 06:34:54 51°14.342 2°55.217 10.4413 3.174638 27.981949 2.899726
2010-04-22 06:34:59 51°14.353 2°55.204 10.4356 3.174638 27.981949 2.899726
2010-04-22 06:35:03 51°14.362 2°55.194 10.4111 3.177694 28.021585 2.864902
2010-04-22 06:35:08 51°14.373 2°55.181 10.4338 3.18054 28.052411 2.830078
2010-04-22 06:35:13 51°14.384 2°55.168 10.4195 3.181066 28.060635 2.864902
2010-04-22 06:35:18 51°14.396 2°55.156 10.4274 3.178748 28.039873 2.899726
2010-04-22 06:35:23 51°14.407 2°55.143 10.4054 3.169686 27.959495 3.004198
2010-04-22 06:35:27 51°14.417 2°55.134 10.4025 3.169686 27.959495 3.004198
2010-04-22 06:35:32 51°14.429 2°55.121 10.3938 3.170635 27.974898 3.143494
2010-04-22 06:35:37 51°14.441 2°55.108 10.3795 3.178222 28.055712 3.317614
2010-04-22 06:35:42 51°14.453 2°55.095 10.3747 3.193712 28.21193 3.526559
2010-04-22 06:35:47 51°14.466 2°55.082 10.3663 3.197505 28.247751 3.735503
2010-04-22 06:35:52 51°14.478 2°55.069 10.3534 3.206252 28.338217 4.014096
2010-04-22 06:35:57 51°14.491 2°55.056 10.3383 3.213523 28.416197 4.292688
2010-04-22 06:36:02 51°14.504 2°55.043 10.3299 3.213523 28.416197 4.292688
2010-04-22 06:36:07 51°14.516 2°55.03 10.3377 3.218581 28.467563 4.536456
2010-04-22 06:36:12 51°14.529 2°55.018 10.3365 3.219425 28.483969 4.745401
2010-04-22 06:36:17 51°14.542 2°55.007 10.3207 3.233546 28.631064 4.884697
2010-04-22 06:36:22 51°14.556 2°54.996 10.3221 3.238921 28.693848 5.163289
2010-04-22 06:36:27 51°14.568 2°54.983 10.2944 3.238921 28.693848 5.163289
2010-04-22 06:36:32 51°14.581 2°54.969 10.28 3.240607 28.719245 5.546354
2010-04-22 06:36:37 51°14.592 2°54.954 10.2634 3.255361 28.874815 5.720474
2010-04-22 06:36:42 51°14.604 2°54.939 10.2888 3.255467 28.8835 5.650826
2010-04-22 06:36:47 51°14.616 2°54.924 10.2604 3.261474 28.948249 5.616002
2010-04-22 06:36:52 51°14.628 2°54.91 10.2027 3.272118 29.057983 5.581178
2010-04-22 06:36:57 51°14.639 2°54.895 10.1898 3.272118 29.057983 5.581178
2010-04-22 06:37:02 51°14.651 2°54.881 10.1702 3.274015 29.084343 5.33741
2010-04-22 06:37:07 51°14.662 2°54.865 10.1725 3.28329 29.186534 5.093641
2010-04-22 06:37:12 51°14.673 2°54.85 10.1749 3.278548 29.150816 4.815049
2010-04-22 06:37:17 51°14.685 2°54.833 10.1752 3.288982 29.270381 4.57128
2010-04-22 06:37:22 51°14.696 2°54.816 10.1373 3.28719 29.257906 4.22304
2010-04-22 06:37:27 51°14.709 2°54.798 10.1328 3.28719 29.257906 4.22304
2010-04-22 06:37:32 51°14.721 2°54.779 10.1317 3.293408 29.33478 3.805151
2010-04-22 06:37:37 51°14.734 2°54.76 10.1203 3.298573 29.409826 3.491735
2010-04-22 06:37:42 51°14.748 2°54.741 10.108 3.299838 29.443855 3.178318
2010-04-22 06:37:47 51°14.762 2°54.723 10.0901 3.31101 29.562807 2.93455
2010-04-22 06:37:52 51°14.776 2°54.704 10.0802 3.31238 29.583581 2.795254
2010-04-22 06:37:57 51°14.79 2°54.685 10.089 3.31238 29.583581 2.795254
2010-04-22 06:38:02 51°14.805 2°54.666 10.0731 3.315753 29.626815 2.551485
2010-04-22 06:38:07 51°14.819 2°54.647 10.082 3.315753 29.642617 2.447013
2010-04-22 06:38:12 51°14.834 2°54.628 10.0845 3.318388 29.676626 2.342541
2010-04-22 06:38:17 51°14.848 2°54.609 10.0992 3.322921 29.736072 2.238069
2010-04-22 06:38:22 51°14.863 2°54.589 10.0915 3.316808 29.683402 2.238069
2010-04-22 06:38:27 51°14.878 2°54.57 10.0827 3.316808 29.683402 2.238069
2010-04-22 06:38:32 51°14.892 2°54.551 10.0774 3.313014 29.657669 2.203245
2010-04-22 06:38:37 51°14.908 2°54.533 10.0797 3.322394 29.759314 2.272893
2010-04-22 06:38:42 51°14.923 2°54.515 10.0719 3.322078 29.763467 2.203245
2010-04-22 06:38:47 51°14.939 2°54.498 10.0584 3.327243 29.818717 2.168421
2010-04-22 06:38:52 51°14.955 2°54.482 10.0485 3.319654 29.740733 2.098773
2010-04-22 06:38:57 51°14.972 2°54.466 10.0535 3.319654 29.740733 2.098773
2010-04-22 06:39:02 51°14.988 2°54.45 10.0528 3.318495 29.727903 2.063949
2010-04-22 06:39:07 51°15.004 2°54.434 10.065 3.325135 29.797788 2.063949
2010-04-22 06:39:12 51°15.021 2°54.418 10.0738 3.316703 29.717404 2.063949
2010-04-22 06:39:17 51°15.037 2°54.402 10.0393 3.322394 29.776554 2.168421
2010-04-22 06:39:22 51°15.053 2°54.385 10.0508 3.323975 29.795571 2.342541
2010-04-22 06:39:27 51°15.069 2°54.368 10.0359 3.323975 29.795571 2.342541
2010-04-22 06:39:32 51°15.085 2°54.351 10.045 3.322289 29.788784 2.551485
2010-04-22 06:39:37 51°15.101 2°54.334 10.0451 3.321551 29.783447 2.795254
2010-04-22 06:39:42 51°15.117 2°54.317 10.0388 3.317863 29.750787 2.93455
2010-04-22 06:39:47 51°15.133 2°54.3 10.03 3.327243 29.846645 3.28279
2010-04-22 06:39:52 51°15.149 2°54.283 10.0116 3.328192 29.852078 3.909623
2010-04-22 06:39:57 51°15.165 2°54.266 10.0112 3.328192 29.852078 3.909623
2010-04-22 06:40:02 51°15.18 2°54.249 10.0129 3.325451 29.832165 4.536456
2010-04-22 06:40:07 51°15.197 2°54.232 10.0153 3.327665 29.854164 5.441882
2010-04-22 06:40:12 51°15.212 2°54.215 9.9964 3.321657 29.798446 6.312483
2010-04-22 06:40:17 51°15.228 2°54.197 9.985 3.327665 29.863489 7.14826
2010-04-22 06:40:22 51°15.244 2°54.18 9.9904 3.319022 29.780898 7.670621
2010-04-22 06:40:27 51°15.26 2°54.163 10.0055 3.319022 29.780898 7.670621
2010-04-22 06:40:32 51°15.276 2°54.146 9.986 3.318495 29.780976 8.158158
2010-04-22 06:40:37 51°15.292 2°54.129 9.9783 3.324819 29.851849 8.192982
2010-04-22 06:40:43 51°15.312 2°54.109 9.9684 3.320814 29.817339 8.053686
2010-04-22 06:40:47 51°15.325 2°54.095 9.9498 3.327876 29.889595 7.844741
2010-04-22 06:40:52 51°15.341 2°54.079 9.9615 3.322079 29.841249 7.461677
2010-04-22 06:40:57 51°15.357 2°54.062 9.9471 3.322079 29.841249 7.461677
2010-04-22 06:41:02 51°15.374 2°54.046 9.9572 3.331038 29.935101 6.869668
2010-04-22 06:41:07 51°15.39 2°54.029 9.9432 3.32229 29.848681 6.312483
2010-04-22 06:41:12 51°15.406 2°54.013 9.9443 3.331038 29.941122 5.824946
2010-04-22 06:41:17 51°15.423 2°53.996 9.9402 3.331038 29.945808 5.198113
2010-04-22 06:41:22 51°15.439 2°53.979 9.9233 3.333463 29.975986 4.710577
2010-04-22 06:41:27 51°15.455 2°53.962 9.9177 3.333463 29.975986 4.710577
2010-04-22 06:41:32 51°15.471 2°53.945 9.9196 3.333147 29.98155 4.39716
2010-04-22 06:41:37 51°15.487 2°53.928 9.9036 3.328825 29.944513 4.04892
2010-04-22 06:41:42 51°15.503 2°53.911 9.9128 3.33146 29.972788 3.805151
2010-04-22 06:41:47 51°15.519 2°53.894 9.9062 3.325031 29.914061 3.596207
2010-04-22 06:41:52 51°15.535 2°53.877 9.8964 3.332093 29.987143 3.491735
2010-04-22 06:41:57 51°15.551 2°53.86 9.8694 3.332093 29.987143 3.491735
2010-04-22 06:42:02 51°15.567 2°53.844 9.8745 3.328298 29.956686 3.387263
2010-04-22 06:42:07 51°15.583 2°53.828 9.8705 3.329985 29.980886 3.247966
2010-04-22 06:42:12 51°15.599 2°53.811 9.8594 3.32598 29.94496 3.213142
2010-04-22 06:42:17 51°15.615 2°53.795 9.848 3.332409 30.015824 3.213142
2010-04-22 06:42:22 51°15.631 2°53.778 9.8361 3.331671 30.010478 3.178318
2010-04-22 06:42:27 51°15.647 2°53.761 9.8331 3.331671 30.010478 3.178318
2010-04-22 06:42:32 51°15.663 2°53.745 9.8282 3.330512 30.004957 3.28279
2010-04-22 06:42:37 51°15.678 2°53.727 9.8133 3.335572 30.066917 3.422087
2010-04-22 06:42:42 51°15.694 2°53.709 9.8115 3.334201 30.062667 3.526559
2010-04-22 06:42:47 51°15.709 2°53.691 9.8026 3.337469 30.099363 3.596207
2010-04-22 06:42:52 51°15.725 2°53.673 9.7972 3.337574 30.109196 3.735503
2010-04-22 06:42:57 51°15.74 2°53.655 9.7951 3.337574 30.109196 3.735503
2010-04-22 06:43:02 51°15.755 2°53.637 9.8059 3.335783 30.099389 3.909623
2010-04-22 06:43:07 51°15.77 2°53.619 9.7919 3.337996 30.130989 4.083744
2010-04-22 06:43:12 51°15.785 2°53.601 9.7951 3.335467 30.114477 4.083744
2010-04-22 06:43:17 51°15.801 2°53.583 9.7735 3.337786 30.144447 4.014096
2010-04-22 06:43:23 51°15.819 2°53.561 9.7831 3.338629 30.16305 3.909623
2010-04-22 06:43:27 51°15.831 2°53.546 9.7831 3.338629 30.16305 3.909623
2010-04-22 06:43:32 51°15.846 2°53.527 9.7666 3.330197 30.08541 3.770327
2010-04-22 06:43:37 51°15.861 2°53.509 9.7651 3.329881 30.087656 3.526559
2010-04-22 06:43:42 51°15.877 2°53.491 9.7662 3.33104 30.101294 3.352439
2010-04-22 06:43:47 51°15.892 2°53.472 9.758 3.334202 30.13499 3.178318
2010-04-22 06:43:52 51°15.907 2°53.454 9.7495 3.332305 30.120731 2.969374
2010-04-22 06:43:57 51°15.923 2°53.436 9.7498 3.332305 30.120731 2.969374
2010-04-22 06:44:02 51°15.938 2°53.417 9.7407 3.338419 30.18672 2.830078
2010-04-22 06:44:07 51°15.953 2°53.399 9.7309 3.336838 30.174273 2.621133
2010-04-22 06:44:12 51°15.969 2°53.381 9.7477 3.336416 30.17548 2.516661
2010-04-22 06:44:17 51°15.984 2°53.364 9.7538 3.335151 30.166877 2.342541
2010-04-22 06:44:22 51°16.001 2°53.348 9.747 3.333043 30.151857 2.272893
2010-04-22 06:44:27 51°16.018 2°53.333 9.7581 3.333043 30.151857 2.272893
2010-04-22 06:44:32 51°16.035 2°53.32 9.7684 3.338313 30.20809 2.168421
2010-04-22 06:44:37 51°16.052 2°53.306 9.7439 3.338314 30.212852 2.098773
2010-04-22 06:44:42 51°16.07 2°53.293 9.7454 3.337049 30.206969 2.029124
2010-04-22 06:44:47 51°16.087 2°53.279 9.751 3.336311 30.20229 2.029124
2010-04-22 06:44:52 51°16.105 2°53.267 9.731 3.331146 30.151167 2.029124
2010-04-22 06:44:57 51°16.123 2°53.255 9.7368 3.331146 30.151167 2.029124
2010-04-22 06:45:02 51°16.141 2°53.242 9.7385 3.33199 30.155548 1.959476
2010-04-22 06:45:07 51°16.16 2°53.231 9.7315 3.335995 30.195717 1.959476
2010-04-22 06:45:12 51°16.178 2°53.22 9.7384 3.336627 30.199339 1.924652
2010-04-22 06:45:17 51°16.197 2°53.209 9.7351 3.339578 30.229621 1.889828
2010-04-22 06:45:22 51°16.215 2°53.198 9.7315 3.331884 30.15517 1.889828
2010-04-22 06:45:27 51°16.233 2°53.188 9.7274 3.331884 30.15517 1.889828
2010-04-22 06:45:32 51°16.252 2°53.177 9.7362 3.338946 30.230086 1.82018
2010-04-22 06:45:37 51°16.27 2°53.166 9.7401 3.333887 30.184772 1.855004
2010-04-22 06:45:42 51°16.289 2°53.156 9.7307 3.338314 30.230551 1.959476
2010-04-22 06:45:47 51°16.307 2°53.145 9.7299 3.337365 30.222394 2.063949
2010-04-22 06:45:52 51°16.326 2°53.134 9.7268 3.339789 30.246723 2.238069
2010-04-22 06:45:57 51°16.344 2°53.124 9.7311 3.339789 30.246723 2.238069
2010-04-22 06:46:02 51°16.363 2°53.113 9.7419 3.331884 30.16876 2.481837
2010-04-22 06:46:07 51°16.382 2°53.102 9.7433 3.339262 30.246887 2.621133
2010-04-22 06:46:12 51°16.4 2°53.091 9.7483 3.336311 30.217265 2.621133
2010-04-22 06:46:17 51°16.419 2°53.081 9.7521 3.339579 30.249379 2.516661
2010-04-22 06:46:22 51°16.437 2°53.07 9.7496 3.336206 30.218931 2.377365
2010-04-22 06:46:27 51°16.456 2°53.059 9.7578 3.336206 30.218931 2.377365
2010-04-22 06:46:32 51°16.474 2°53.048 9.7499 3.341581 30.272893 2.342541
2010-04-22 06:46:37 51°16.493 2°53.038 9.7522 3.336206 30.220294 2.307717
2010-04-22 06:46:42 51°16.512 2°53.028 9.7477 3.335046 30.207294 2.238069
2010-04-22 06:46:47 51°16.53 2°53.017 9.7453 3.33589 30.211672 2.203245
2010-04-22 06:46:52 51°16.549 2°53.007 9.7425 3.3361 30.211064 2.168421
2010-04-22 06:46:57 51°16.567 2°52.996 9.7447 3.3361 30.211064 2.168421
2010-04-22 06:47:03 51°16.589 2°52.984 9.734 3.335784 30.205849 2.098773
2010-04-22 06:47:07 51°16.604 2°52.976 9.7285 3.342003 30.265528 2.063949
2010-04-22 06:47:12 51°16.623 2°52.965 9.7247 3.342951 30.273684 2.029124
2010-04-22 06:47:17 51°16.641 2°52.954 9.7281 3.343268 30.27754 1.9943
2010-04-22 06:47:22 51°16.659 2°52.942 9.7193 3.343373 30.280645 1.959476
2010-04-22 06:47:27 51°16.677 2°52.93 9.7145 3.343373 30.280645 1.959476
2010-04-22 06:47:32 51°16.695 2°52.919 9.7089 3.343373 30.282692 1.924652
2010-04-22 06:47:37 51°16.712 2°52.907 9.7204 3.343373 30.283374 1.82018
2010-04-22 06:47:43 51°16.734 2°52.893 9.7137 3.343373 30.286787 1.785356
2010-04-22 06:47:47 51°16.748 2°52.883 9.7131 3.340844 30.267532 1.64606
2010-04-22 06:47:52 51°16.766 2°52.871 9.702 3.343584 30.29778 1.611236
2010-04-22 06:47:57 51°16.784 2°52.859 9.6969 3.343584 30.29778 1.611236
2010-04-22 06:48:02 51°16.802 2°52.847 9.6937 3.343162 30.294913 1.506764
2010-04-22 06:48:07 51°16.819 2°52.835 9.6845 3.343373 30.303179 1.402292
2010-04-22 06:48:11 51°16.834 2°52.826 9.6839 3.343373 30.305913 1.367467
2010-04-22 06:48:17 51°16.855 2°52.811 9.6758 3.340528 30.278692 1.402292
2010-04-22 06:48:22 51°16.873 2°52.799 9.6785 3.341476 30.289587 1.402292
2010-04-22 06:48:27 51°16.891 2°52.787 9.6791 3.341476 30.289587 1.402292
2010-04-22 06:48:32 51°16.909 2°52.775 9.6649 3.344006 30.319104 1.47194
2010-04-22 06:48:37 51°16.926 2°52.763 9.6621 3.344111 30.322899 1.47194
2010-04-22 06:48:42 51°16.944 2°52.75 9.6546 3.34232 30.308997 1.437116
2010-04-22 06:48:47 51°16.962 2°52.738 9.6509 3.344428 30.337713 1.541588
2010-04-22 06:48:52 51°16.98 2°52.725 9.6385 3.344428 30.341823 1.64606
2010-04-22 06:48:57 51°16.998 2°52.713 9.6458 3.344428 30.341823 1.64606
2010-04-22 06:49:02 51°17.015 2°52.699 9.6366 3.345376 30.354787 1.750532
2010-04-22 06:49:07 51°17.033 2°52.687 9.6255 3.346114 30.363578 2.029124
2010-04-22 06:49:12 51°17.051 2°52.674 9.6228 3.347485 30.384906 2.307717
2010-04-22 06:49:17 51°17.069 2°52.66 9.6193 3.34759 30.388025 2.551485
2010-04-22 06:49:22 51°17.087 2°52.647 9.6216 3.349066 30.40768 2.864902
2010-04-22 06:49:27 51°17.104 2°52.634 9.6186 3.349066 30.40768 2.864902
2010-04-22 06:49:32 51°17.122 2°52.622 9.6142 3.351068 30.434022 3.10867
2010-04-22 06:49:37 51°17.14 2°52.609 9.6133 3.351806 30.446265 3.596207
2010-04-22 06:49:42 51°17.158 2°52.599 9.6134 3.35265 30.462328 4.188216
2010-04-22 06:49:47 51°17.178 2°52.591 9.6049 3.353388 30.474581 4.954345
2010-04-22 06:49:52 51°17.197 2°52.584 9.6082 3.35402 30.484398 5.824946
2010-04-22 06:49:57 51°17.216 2°52.579 9.6083 3.35402 30.484398 5.824946
2010-04-22 06:50:03 51°17.24 2°52.573 9.5968 3.355074 30.498466 6.730372
2010-04-22 06:50:07 51°17.256 2°52.571 9.6068 3.355812 30.509351 7.775093
2010-04-22 06:50:12 51°17.276 2°52.568 9.6021 3.356339 30.516042 8.819815
2010-04-22 06:50:17 51°17.296 2°52.566 9.5992 3.357182 30.526612 10.143129
2010-04-22 06:50:22 51°17.316 2°52.565 9.5988 3.357604 30.532934 11.361971
2010-04-22 06:50:27 51°17.336 2°52.563 9.5946 3.357604 30.532934 11.361971
2010-04-22 06:50:32 51°17.356 2°52.563 9.6029 3.358131 30.54032 12.685285
2010-04-22 06:50:37 51°17.376 2°52.561 9.5953 3.358131 30.54032 14.147895
2010-04-22 06:50:42 51°17.396 2°52.561 9.5861 3.358658 30.547015 15.575681
2010-04-22 06:50:47 51°17.417 2°52.561 9.5955 3.358763 30.552226 17.038292
2010-04-22 06:50:52 51°17.436 2°52.561 9.5823 3.358342 30.547975 18.048189
2010-04-22 06:50:57 51°17.457 2°52.56 9.5771 3.358342 30.547975 18.048189
2010-04-22 06:51:02 51°17.476 2°52.56 9.5683 3.35655 30.534054 18.57055
2010-04-22 06:51:07 51°17.496 2°52.56 9.5625 3.358553 30.557016 18.605374
2010-04-22 06:51:12 51°17.517 2°52.559 9.5682 3.358553 30.554941 18.849142
2010-04-22 06:51:17 51°17.537 2°52.559 9.5644 3.358237 30.555902 18.675022
2010-04-22 06:51:22 51°17.557 2°52.558 9.5545 3.358131 30.558298 18.257134
2010-04-22 06:51:27 51°17.577 2°52.558 9.5474 3.358131 30.558298 18.257134
2010-04-22 06:51:32 51°17.597 2°52.557 9.555 3.358237 30.560745 18.222309
2010-04-22 06:51:37 51°17.617 2°52.556 9.5423 3.358447 30.566332 18.083013
2010-04-22 06:51:42 51°17.637 2°52.555 9.547 3.358131 30.57145 17.769597
2010-04-22 06:51:47 51°17.657 2°52.554 9.5393 3.358131 30.574913 17.177588
2010-04-22 06:51:52 51°17.677 2°52.554 9.5391 3.358131 30.577684 16.202514
2010-04-22 06:51:57 51°17.697 2°52.553 9.5251 3.358131 30.577684 16.202514
2010-04-22 06:52:02 51°17.717 2°52.552 9.523 3.357604 30.575136 15.297089
2010-04-22 06:52:07 51°17.737 2°52.551 9.525 3.357921 30.585952 14.565784
2010-04-22 06:52:12 51°17.757 2°52.549 9.5089 3.357921 30.589419 13.904127
2010-04-22 06:52:17 51°17.777 2°52.549 9.5104 3.35771 30.588677 13.381766
2010-04-22 06:52:22 51°17.797 2°52.547 9.5096 3.358132 30.598485 12.963877
2010-04-22 06:52:27 51°17.817 2°52.546 9.4986 3.358132 30.598485 12.963877
2010-04-22 06:52:32 51°17.837 2°52.545 9.4911 3.358553 30.605519 12.615637
2010-04-22 06:52:37 51°17.857 2°52.544 9.4841 3.357921 30.603989 12.30222
2010-04-22 06:52:42 51°17.877 2°52.542 9.4847 3.358764 30.618064 12.058452
2010-04-22 06:52:47 51°17.897 2°52.541 9.4799 3.359186 30.62302 11.745035
2010-04-22 06:52:52 51°17.917 2°52.539 9.4792 3.359713 30.634601 11.605739
2010-04-22 06:52:57 51°17.937 2°52.538 9.4686 3.359713 30.634601 11.605739
2010-04-22 06:53:02 51°17.957 2°52.536 9.4712 3.359397 30.636271 11.501267
2010-04-22 06:53:07 51°17.977 2°52.535 9.459 3.359713 30.644337 11.466443
2010-04-22 06:53:12 51°17.997 2°52.533 9.4511 3.36024 30.655929 11.431619
2010-04-22 06:53:17 51°18.017 2°52.532 9.4433 3.360346 30.663261 11.187851
2010-04-22 06:53:22 51°18.037 2°52.53 9.4386 3.360662 30.672033 10.978906
2010-04-22 06:53:27 51°18.057 2°52.529 9.4331 3.360662 30.672033 10.978906
2010-04-22 06:53:32 51°18.077 2°52.528 9.4408 3.361505 30.682656 10.735138
2010-04-22 06:53:37 51°18.098 2°52.528 9.4336 3.362138 30.693239 10.317249
2010-04-22 06:53:42 51°18.117 2°52.526 9.4268 3.361189 30.687125 9.934185
2010-04-22 06:53:47 51°18.138 2°52.525 9.4244 3.362138 30.704401 9.55112
2010-04-22 06:53:52 51°18.158 2°52.522 9.42 3.360557 30.693279 9.272528
2010-04-22 06:53:57 51°18.178 2°52.521 9.4208 3.360557 30.693279 9.272528
2010-04-22 06:54:02 51°18.198 2°52.52 9.4119 3.360241 30.69915 9.272528
2010-04-22 06:54:07 51°18.218 2°52.518 9.4209 3.359714 30.700097 9.377
2010-04-22 06:54:12 51°18.238 2°52.516 9.4189 3.359819 30.705355 9.620768
2010-04-22 06:54:17 51°18.258 2°52.514 9.4157 3.358344 30.693199 9.864537
2010-04-22 06:54:22 51°18.278 2°52.512 9.4145 3.357501 30.687449 9.969009
2010-04-22 06:54:27 51°18.298 2°52.509 9.4132 3.357501 30.687449 9.969009
2010-04-22 06:54:32 51°18.318 2°52.507 9.4157 3.357922 30.695912 9.864537
2010-04-22 06:54:37 51°18.338 2°52.505 9.4166 3.356868 30.687326 9.690416
2010-04-22 06:54:42 51°18.357 2°52.502 9.4218 3.35729 30.696489 9.899361
2010-04-22 06:54:47 51°18.377 2°52.5 9.4221 3.356025 30.684368 10.386897
2010-04-22 06:54:52 51°18.397 2°52.498 9.435 3.357079 30.69575 10.909258
2010-04-22 06:54:57 51°18.417 2°52.496 9.4395 3.357079 30.69575 10.909258
2010-04-22 06:55:02 51°18.437 2°52.494 9.4516 3.356552 30.691806 11.361971
2010-04-22 06:55:07 51°18.456 2°52.492 9.4659 3.355287 30.680382 11.814684
2010-04-22 06:55:12 51°18.476 2°52.491 9.4718 3.35476 30.67504 12.476341
2010-04-22 06:55:17 51°18.496 2°52.489 9.4796 3.354444 30.671835 13.172822
2010-04-22 06:55:22 51°18.516 2°52.486 9.4814 3.353495 30.661522 13.938951
2010-04-22 06:55:27 51°18.535 2°52.485 9.483 3.353495 30.661522 13.938951
2010-04-22 06:55:32 51°18.555 2°52.482 9.4829 3.353917 30.662305 15.297089
2010-04-22 06:55:37 51°18.575 2°52.48 9.4854 3.353074 30.648179 16.898995
2010-04-22 06:55:42 51°18.595 2°52.479 9.4828 3.351176 30.621291 18.222309
2010-04-22 06:55:47 51°18.615 2°52.477 9.4877 3.350438 30.60755 19.336679
2010-04-22 06:55:52 51°18.635 2°52.475 9.4913 3.349279 30.587461 19.928688
2010-04-22 06:55:57 51°18.654 2°52.473 9.491 3.349279 30.587461 19.928688
2010-04-22 06:56:02 51°18.674 2°52.471 9.4897 3.348646 30.575497 20.555521
2010-04-22 06:56:07 51°18.694 2°52.468 9.4891 3.346222 30.546102 20.868938
2010-04-22 06:56:12 51°18.714 2°52.467 9.4869 3.347592 30.555799 20.97341
2010-04-22 06:56:17 51°18.734 2°52.464 9.4882 3.346116 30.5374 20.868938
2010-04-22 06:56:22 51°18.753 2°52.463 9.4894 3.346538 30.541665 20.625169
2010-04-22 06:56:27 51°18.774 2°52.461 9.4905 3.346538 30.541665 20.625169
2010-04-22 06:56:32 51°18.793 2°52.459 9.4919 3.346011 30.532865 20.416225
2010-04-22 06:56:37 51°18.813 2°52.457 9.4868 3.346327 30.536063 20.276929
2010-04-22 06:56:42 51°18.833 2°52.455 9.4856 3.345906 30.531105 19.998336
2010-04-22 06:56:47 51°18.853 2°52.453 9.4902 3.345168 30.523643 19.615272
2010-04-22 06:56:52 51°18.873 2°52.451 9.4891 3.345168 30.522949 19.162559
2010-04-22 06:56:57 51°18.893 2°52.449 9.4875 3.345168 30.522949 19.162559
2010-04-22 06:57:02 51°18.913 2°52.447 9.4884 3.345484 30.526147 18.74467
2010-04-22 06:57:07 51°18.933 2°52.445 9.4888 3.344219 30.51405 18.222309
2010-04-22 06:57:12 51°18.952 2°52.443 9.4936 3.345168 30.522256 17.699949
2010-04-22 06:57:17 51°18.972 2°52.441 9.4911 3.343798 30.510479 17.247236
2010-04-22 06:57:22 51°18.992 2°52.439 9.4909 3.344957 30.523592 16.759699
2010-04-22 06:57:27 51°19.011 2°52.437 9.4938 3.344957 30.523592 16.759699
2010-04-22 06:57:32 51°19.031 2°52.435 9.495 3.344957 30.522205 16.202514
2010-04-22 06:57:37 51°19.051 2°52.433 9.4898 3.345062 30.522577 15.784626
2010-04-22 06:57:42 51°19.07 2°52.431 9.4951 3.344325 30.515115 15.331913
2010-04-22 06:57:47 51°19.089 2°52.428 9.4975 3.343481 30.507281 15.053321
2010-04-22 06:57:52 51°19.109 2°52.426 9.5007 3.344008 30.510531 14.635432
2010-04-22 06:57:57 51°19.128 2°52.425 9.4982 3.344008 30.510531 14.635432
2010-04-22 06:58:02 51°19.148 2°52.422 9.4999 3.344746 30.519379 14.147895
2010-04-22 06:58:07 51°19.168 2°52.421 9.4964 3.34443 30.516181 13.764831
2010-04-22 06:58:12 51°19.188 2°52.419 9.4937 3.344746 30.517299 13.451414
2010-04-22 06:58:17 51°19.208 2°52.416 9.4958 3.344114 30.510904 13.312118
2010-04-22 06:58:22 51°19.227 2°52.414 9.4993 3.34306 30.500246 13.06835
2010-04-22 06:58:27 51°19.247 2°52.412 9.4938 3.34306 30.500246 13.06835
2010-04-22 06:58:32 51°19.267 2°52.41 9.491 3.344324 30.50957 12.824581
2010-04-22 06:58:37 51°19.287 2°52.407 9.4882 3.344324 30.508877 12.545989
2010-04-22 06:58:42 51°19.307 2°52.405 9.4875 3.344219 30.507811 12.162924
2010-04-22 06:58:47 51°19.327 2°52.403 9.486 3.344008 30.506373 11.884332
2010-04-22 06:58:52 51°19.347 2°52.401 9.4847 3.343376 30.500671 11.605739
2010-04-22 06:58:57 51°19.367 2°52.399 9.4846 3.343376 30.500671 11.605739
2010-04-22 06:59:02 51°19.386 2°52.398 9.4847 3.343692 30.504561 11.431619
2010-04-22 06:59:07 51°19.407 2°52.397 9.481 3.34306 30.497474 11.153027
2010-04-22 06:59:12 51°19.427 2°52.397 9.4821 3.343692 30.505254 10.769962
2010-04-22 06:59:17 51°19.447 2°52.396 9.4773 3.343903 30.509465 10.630666
2010-04-22 06:59:22 51°19.467 2°52.397 9.48 3.34053 30.477438 10.456545
2010-04-22 06:59:27 51°19.487 2°52.397 9.4742 3.34053 30.477438 10.456545
2010-04-22 06:59:32 51°19.507 2°52.398 9.4729 3.34053 30.479516 10.038657
2010-04-22 06:59:37 51°19.527 2°52.398 9.4686 3.343165 30.506856 9.655592
2010-04-22 06:59:42 51°19.547 2°52.399 9.4701 3.343587 30.511814 9.272528
2010-04-22 06:59:47 51°19.567 2°52.4 9.4771 3.341584 30.492253 8.993935
2010-04-22 06:59:52 51°19.587 2°52.401 9.474 3.341373 30.490814 8.680519
2010-04-22 06:59:57 51°19.607 2°52.402 9.4688 3.341373 30.490814 8.680519
2010-04-22 07:00:02 51°19.627 2°52.403 9.4627 3.343376 30.513842 8.471574
2010-04-22 07:00:07 51°19.647 2°52.404 9.4665 3.34306 30.512031 8.227806
2010-04-22 07:00:12 51°19.668 2°52.406 9.4622 3.342849 30.512673 7.949214
2010-04-22 07:00:17 51°19.688 2°52.406 9.4565 3.342744 30.5123 7.844741
2010-04-22 07:00:22 51°19.708 2°52.408 9.4603 3.340636 30.493054 7.775093
2010-04-22 07:00:27 51°19.729 2°52.409 9.4503 3.340636 30.493054 7.775093
2010-04-22 07:00:32 51°19.749 2°52.41 9.454 3.341795 30.506864 7.566149
2010-04-22 07:00:37 51°19.769 2°52.411 9.4537 3.341901 30.507237 7.531325
2010-04-22 07:00:42 51°19.789 2°52.412 9.4511 3.342428 30.513957 7.322381
2010-04-22 07:00:47 51°19.809 2°52.413 9.443 3.342006 30.512466 7.252733
2010-04-22 07:00:52 51°19.83 2°52.414 9.4385 3.342006 30.513854 7.113436
2010-04-22 07:00:57 51°19.85 2°52.414 9.4371 3.342006 30.513854 7.113436
2010-04-22 07:01:02 51°19.87 2°52.416 9.4348 3.342111 30.51839 7.008964
2010-04-22 07:01:07 51°19.89 2°52.416 9.4254 3.341163 30.509484 7.043788
2010-04-22 07:01:12 51°19.911 2°52.417 9.4198 3.341584 30.517221 6.97414
2010-04-22 07:01:17 51°19.931 2°52.418 9.4131 3.341584 30.518609 6.97414
2010-04-22 07:01:22 51°19.951 2°52.42 9.4078 3.341374 30.519947 6.904492
2010-04-22 07:01:27 51°19.971 2°52.421 9.4034 3.341374 30.519947 6.904492
2010-04-22 07:01:32 51°19.992 2°52.422 9.3931 3.341585 30.524164 6.904492
2010-04-22 07:01:37 51°20.012 2°52.422 9.399 3.341374 30.524808 6.939316
2010-04-22 07:01:42 51°20.032 2°52.424 9.3867 3.341058 30.52369 6.869668
2010-04-22 07:01:47 51°20.053 2°52.425 9.3766 3.341268 30.532078 6.904492
2010-04-22 07:01:52 51°20.073 2°52.426 9.3695 3.341374 30.538706 6.97414
2010-04-22 07:01:57 51°20.093 2°52.427 9.3596 3.341374 30.538706 6.97414
2010-04-22 07:02:02 51°20.113 2°52.428 9.3489 3.340742 30.537862 7.008964
2010-04-22 07:02:07 51°20.134 2°52.429 9.3355 3.340425 30.540222 7.078612
2010-04-22 07:02:12 51°20.154 2°52.43 9.3256 3.340004 30.542907 7.183084
2010-04-22 07:02:17 51°20.174 2°52.431 9.3198 3.340847 30.557022 7.322381
2010-04-22 07:02:22 51°20.194 2°52.432 9.3167 3.340953 30.562269 7.392029
2010-04-22 07:02:27 51°20.214 2°52.433 9.2965 3.340953 30.562269 7.392029
2010-04-22 07:02:32 51°20.234 2°52.434 9.2716 3.341058 30.571001 7.496501
2010-04-22 07:02:37 51°20.254 2°52.435 9.2563 3.341058 30.580063 7.635797
2010-04-22 07:02:42 51°20.274 2°52.436 9.2398 3.341902 30.596292 7.844741
2010-04-22 07:02:47 51°20.294 2°52.437 9.2106 3.342007 30.605041 7.949214
2010-04-22 07:02:52 51°20.314 2°52.438 9.2025 3.342534 30.62087 8.08851
2010-04-22 07:02:57 51°20.334 2°52.438 9.192 3.342534 30.62087 8.08851
2010-04-22 07:03:02 51°20.355 2°52.439 9.1827 3.342956 30.634241 8.158158
2010-04-22 07:03:07 51°20.375 2°52.439 9.1631 3.343167 30.647579 8.227806
2010-04-22 07:03:12 51°20.395 2°52.44 9.1437 3.343483 30.661999 8.297454
2010-04-22 07:03:17 51°20.415 2°52.44 9.1367 3.343905 30.683113 8.297454
2010-04-22 07:03:22 51°20.435 2°52.44 9.1283 3.34517 30.710724 8.192982
2010-04-22 07:03:27 51°20.455 2°52.441 9.1219 3.34517 30.710724 8.192982
2010-04-22 07:03:32 51°20.475 2°52.441 9.1077 3.345276 30.735706 8.053686
2010-04-22 07:03:37 51°20.495 2°52.441 9.0993 3.346014 30.758011 7.740269
2010-04-22 07:03:42 51°20.514 2°52.442 9.0941 3.345698 30.767478 7.461677
2010-04-22 07:03:47 51°20.534 2°52.442 9.0823 3.344539 30.773294 7.252733
2010-04-22 07:03:52 51°20.553 2°52.443 9.0773 3.345487 30.79639 7.078612
2010-04-22 07:03:57 51°20.573 2°52.443 9.0734 3.345487 30.79639 7.078612
2010-04-22 07:04:02 51°20.593 2°52.446 9.0631 3.345804 30.814466 7.078612
2010-04-22 07:04:07 51°20.613 2°52.448 9.0601 3.346436 30.830833 7.043788
2010-04-22 07:04:12 51°20.632 2°52.45 9.0586 3.346015 30.835026 7.14826
2010-04-22 07:04:17 51°20.652 2°52.453 9.0543 3.346964 30.853223 7.322381
2010-04-22 07:04:22 51°20.672 2°52.456 9.0485 3.34865 30.879683 7.496501
2010-04-22 07:04:27 51°20.692 2°52.46 9.0524 3.34865 30.879683 7.496501
2010-04-22 07:04:32 51°20.712 2°52.464 9.0388 3.350337 30.907582 7.809917
2010-04-22 07:04:37 51°20.731 2°52.47 9.0394 3.351602 30.928342 7.984038
2010-04-22 07:04:42 51°20.751 2°52.474 9.0444 3.351813 30.936193 8.123334
2010-04-22 07:04:47 51°20.77 2°52.48 9.0322 3.35371 30.961306 8.053686
2010-04-22 07:04:52 51°20.79 2°52.485 9.0375 3.354553 30.975639 7.949214
2010-04-22 07:04:57 51°20.809 2°52.491 9.0358 3.354553 30.975639 7.949214
2010-04-22 07:05:02 51°20.829 2°52.497 9.0362 3.35487 30.984583 7.670621
2010-04-22 07:05:07 51°20.848 2°52.504 9.0261 3.354975 30.987089 7.531325
2010-04-22 07:05:12 51°20.868 2°52.51 9.0263 3.354659 30.987419 7.392029
2010-04-22 07:05:17 51°20.888 2°52.517 9.034 3.356029 31.007878 7.600973
2010-04-22 07:05:22 51°20.907 2°52.523 9.0302 3.357189 31.022614 7.879566
2010-04-22 07:05:27 51°20.927 2°52.53 9.0171 3.357189 31.022614 7.879566
2010-04-22 07:05:32 51°20.947 2°52.536 9.0229 3.358243 31.036272 8.08851
2010-04-22 07:05:37 51°20.966 2°52.543 9.0302 3.359508 31.05281 8.332278
2010-04-22 07:05:42 51°20.986 2°52.549 9.0145 3.360667 31.066124 8.541223
2010-04-22 07:05:47 51°21.006 2°52.556 9.0192 3.361827 31.080873 8.610871
2010-04-22 07:05:52 51°21.025 2°52.563 9.0217 3.362459 31.090222 8.680519
2010-04-22 07:05:57 51°21.044 2°52.569 9.0284 3.362459 31.090222 8.680519
2010-04-22 07:06:02 51°21.064 2°52.576 9.0287 3.362775 31.09418 9.028759
2010-04-22 07:06:07 51°21.084 2°52.582 9.0345 3.364146 31.109663 9.133231
2010-04-22 07:06:12 51°21.103 2°52.588 9.0316 3.363829 31.108572 9.098407
2010-04-22 07:06:17 51°21.122 2°52.594 9.0334 3.364567 31.116856 8.959111
2010-04-22 07:06:22 51°21.142 2°52.6 9.0328 3.364146 31.114684 8.680519
2010-04-22 07:06:27 51°21.162 2°52.607 9.0373 3.364146 31.114684 8.680519
2010-04-22 07:06:32 51°21.181 2°52.613 9.0409 3.362986 31.104945 8.401926
2010-04-22 07:06:37 51°21.201 2°52.62 9.0418 3.361405 31.088015 8.192982
2010-04-22 07:06:42 51°21.221 2°52.626 9.0372 3.36014 31.074329 7.984038
2010-04-22 07:06:47 51°21.24 2°52.632 9.0376 3.359297 31.062102 7.809917
2010-04-22 07:06:52 51°21.26 2°52.638 9.0483 3.356873 31.034388 7.531325
2010-04-22 07:06:57 51°21.28 2°52.645 9.047 3.356873 31.034388 7.531325
2010-04-22 07:07:02 51°21.3 2°52.651 9.0408 3.356873 31.034388 7.322381
2010-04-22 07:07:07 51°21.319 2°52.658 9.0462 3.355186 31.014959 7.252733
2010-04-22 07:07:12 51°21.339 2°52.664 9.0445 3.354027 31.001648 7.183084
2010-04-22 07:07:17 51°21.359 2°52.671 9.0378 3.354554 31.006334 7.183084
2010-04-22 07:07:22 51°21.379 2°52.677 9.0422 3.35487 31.009574 7.14826
2010-04-22 07:07:27 51°21.399 2°52.684 9.0392 3.35487 31.009574 7.14826
2010-04-22 07:07:32 51°21.419 2°52.69 9.0378 3.355081 31.008876 7.183084
2010-04-22 07:07:37 51°21.438 2°52.696 9.0431 3.355502 31.013196 7.078612
2010-04-22 07:07:42 51°21.458 2°52.703 9.0487 3.355291 31.010321 7.078612
2010-04-22 07:07:47 51°21.478 2°52.709 9.0539 3.353183 30.988008 7.14826
2010-04-22 07:07:52 51°21.498 2°52.716 9.0525 3.356451 31.022202 7.183084
2010-04-22 07:07:57 51°21.518 2°52.722 9.0528 3.356451 31.022202 7.183084
2010-04-22 07:08:02 51°21.538 2°52.728 9.0515 3.358137 31.040914 7.14826
2010-04-22 07:08:07 51°21.558 2°52.734 9.056 3.358875 31.050622 7.14826
2010-04-22 07:08:12 51°21.577 2°52.74 9.0609 3.359297 31.052796 7.078612
2010-04-22 07:08:17 51°21.597 2°52.747 9.0609 3.360772 31.067921 6.97414
2010-04-22 07:08:22 51°21.616 2°52.753 9.0628 3.361194 31.07081 6.834844
2010-04-22 07:08:27 51°21.635 2°52.76 9.0667 3.361194 31.07081 6.834844
2010-04-22 07:08:32 51°21.654 2°52.766 9.0668 3.360562 31.060749 6.765196
2010-04-22 07:08:37 51°21.674 2°52.772 9.0641 3.36014 31.054998 6.660724
2010-04-22 07:08:42 51°21.693 2°52.778 9.0696 3.358348 31.035922 6.591076
2010-04-22 07:08:47 51°21.713 2°52.782 9.0629 3.359718 31.047816 6.521427
2010-04-22 07:08:52 51°21.733 2°52.787 9.064 3.356978 31.01831 6.382131
2010-04-22 07:08:57 51°21.752 2°52.792 9.0673 3.356978 31.01831 6.382131
2010-04-22 07:09:02 51°21.772 2°52.796 9.0679 3.357926 31.025884 6.347307
2010-04-22 07:09:07 51°21.792 2°52.799 9.064 3.356134 31.005387 6.277659
2010-04-22 07:09:12 51°21.812 2°52.803 9.0649 3.354448 30.987401 6.208011
2010-04-22 07:09:17 51°21.832 2°52.807 9.0677 3.355186 30.99353 6.173187
2010-04-22 07:09:22 51°21.852 2°52.81 9.0709 3.354975 30.992798 6.173187
2010-04-22 07:09:27 51°21.872 2°52.813 9.0662 3.354975 30.992798 6.173187
2010-04-22 07:09:32 51°21.891 2°52.815 9.0654 3.353499 30.976972 6.103539
2010-04-22 07:09:37 51°21.911 2°52.816 9.0623 3.353183 30.973734 6.033891
2010-04-22 07:09:42 51°21.931 2°52.817 9.058 3.352129 30.961515 5.964243
2010-04-22 07:09:47 51°21.951 2°52.819 9.0598 3.35118 30.952514 5.929418
2010-04-22 07:09:52 51°21.972 2°52.82 9.0561 3.351075 30.951435 5.894594
2010-04-22 07:09:57 51°21.991 2°52.819 9.0483 3.351075 30.951435 5.894594
2010-04-22 07:10:02 51°22.011 2°52.819 9.0436 3.352867 30.968357 5.85977
2010-04-22 07:10:07 51°22.031 2°52.817 9.0478 3.352024 30.960435 5.894594
2010-04-22 07:10:12 51°22.051 2°52.815 9.0498 3.35371 30.977704 5.999067
2010-04-22 07:10:17 51°22.071 2°52.813 9.0482 3.355291 30.995323 6.138363
2010-04-22 07:10:22 51°22.091 2°52.811 9.0527 3.358348 31.030203 6.208011
2010-04-22 07:10:27 51°22.111 2°52.808 9.0573 3.358348 31.030203 6.208011
2010-04-22 07:10:32 51°22.131 2°52.805 9.0628 3.359929 31.047115 6.312483
2010-04-22 07:10:37 51°22.15 2°52.802 9.0659 3.361405 31.065812 6.416955
2010-04-22 07:10:42 51°22.17 2°52.798 9.0695 3.36267 31.080205 6.416955
2010-04-22 07:10:47 51°22.189 2°52.794 9.0732 3.363724 31.095306 6.382131
2010-04-22 07:10:52 51°22.209 2°52.79 9.0784 3.363829 31.096386 6.208011
2010-04-22 07:10:57 51°22.229 2°52.786 9.0823 3.363829 31.096386 6.208011
2010-04-22 07:11:02 51°22.249 2°52.783 9.075 3.362986 31.087027 5.964243
2010-04-22 07:11:07 51°22.269 2°52.779 9.0763 3.361721 31.070484 5.790122
2010-04-22 07:11:12 51°22.288 2°52.775 9.0792 3.359613 31.046736 5.51153
2010-04-22 07:11:17 51°22.308 2°52.771 9.0751 3.357821 31.026234 5.267761
2010-04-22 07:11:22 51°22.328 2°52.768 9.0733 3.356451 31.007912 5.163289
2010-04-22 07:11:27 51°22.348 2°52.765 9.0668 3.356451 31.007912 5.163289
2010-04-22 07:11:32 51°22.367 2°52.762 9.065 3.355291 30.991754 5.023993
2010-04-22 07:11:37 51°22.387 2°52.758 9.0628 3.354553 30.981345 4.815049
2010-04-22 07:11:42 51°22.407 2°52.755 9.0657 3.353815 30.972364 4.675753
2010-04-22 07:11:47 51°22.427 2°52.752 9.0658 3.353288 30.966256 4.57128
2010-04-22 07:11:52 51°22.446 2°52.749 9.0667 3.351391 30.947546 4.466808
2010-04-22 07:11:57 51°22.466 2°52.746 9.0732 3.351391 30.947546 4.466808
2010-04-22 07:12:02 51°22.485 2°52.743 9.0723 3.35097 30.941093 4.362336
2010-04-22 07:12:07 51°22.505 2°52.74 9.0706 3.350126 30.93531 4.327512
2010-04-22 07:12:12 51°22.525 2°52.736 9.0724 3.348967 30.92629 4.292688
2010-04-22 07:12:17 51°22.544 2°52.733 9.0713 3.348651 30.92519 4.292688
2010-04-22 07:12:22 51°22.564 2°52.73 9.0757 3.347913 30.916924 4.22304
2010-04-22 07:12:27 51°22.584 2°52.727 9.0772 3.347913 30.916924 4.22304
2010-04-22 07:12:32 51°22.604 2°52.724 9.0729 3.347386 30.911529 4.188216
2010-04-22 07:12:37 51°22.624 2°52.72 9.0766 3.347175 30.909371 4.118568
2010-04-22 07:12:42 51°22.643 2°52.716 9.0794 3.346753 30.904344 4.083744
2010-04-22 07:12:47 51°22.663 2°52.713 9.0853 3.346332 30.898605 4.014096
2010-04-22 07:12:52 51°22.683 2°52.709 9.0849 3.346226 30.898238 3.979271
2010-04-22 07:12:57 51°22.703 2°52.706 9.0888 3.346226 30.898238 3.979271
2010-04-22 07:13:02 51°22.724 2°52.704 9.089 3.345805 30.893211 3.944447
2010-04-22 07:13:07 51°22.744 2°52.701 9.0881 3.345278 30.886395 3.874799
2010-04-22 07:13:12 51°22.764 2°52.698 9.0854 3.344962 30.883158 3.839975
2010-04-22 07:13:17 51°22.785 2°52.696 9.0865 3.343064 30.86161 3.805151
2010-04-22 07:13:22 51°22.805 2°52.693 9.0888 3.34454 30.875289 3.735503
2010-04-22 07:13:27 51°22.825 2°52.69 9.0913 3.34454 30.875289 3.735503
2010-04-22 07:13:32 51°22.844 2°52.687 9.0957 3.344961 30.878182 3.631031
2010-04-22 07:13:37 51°22.864 2°52.683 9.0959 3.34591 30.885045 3.561383
2010-04-22 07:13:42 51°22.884 2°52.68 9.1049 3.346964 30.893697 3.665855
2010-04-22 07:13:47 51°22.904 2°52.677 9.1134 3.348756 30.911321 3.700679
2010-04-22 07:13:52 51°22.924 2°52.675 9.1202 3.347597 30.900879 3.665855
2010-04-22 07:13:57 51°22.945 2°52.671 9.1178 3.347597 30.900879 3.665855
2010-04-22 07:14:02 51°22.965 2°52.668 9.1189 3.346964 30.895119 3.631031
2010-04-22 07:14:07 51°22.984 2°52.665 9.1152 3.348018 30.90306 3.561383
2010-04-22 07:14:12 51°23.004 2°52.662 9.1143 3.346332 30.883672 3.456911
2010-04-22 07:14:17 51°23.024 2°52.66 9.1154 3.345488 30.872204 3.387263
2010-04-22 07:14:22 51°23.044 2°52.657 9.1187 3.34475 30.858976 3.28279
2010-04-22 07:14:27 51°23.064 2°52.655 9.1206 3.34475 30.858976 3.28279
2010-04-22 07:14:32 51°23.085 2°52.652 9.1194 3.345172 30.859028 3.247966
2010-04-22 07:14:37 51°23.105 2°52.65 9.1219 3.345172 30.85406 3.247966
2010-04-22 07:14:42 51°23.125 2°52.648 9.1189 3.344961 30.851196 3.247966
2010-04-22 07:14:47 51°23.145 2°52.644 9.1219 3.344329 30.843312 3.213142
2010-04-22 07:14:52 51°23.165 2°52.641 9.1337 3.342642 30.824654 3.213142
2010-04-22 07:14:57 51°23.186 2°52.639 9.1389 3.342642 30.824654 3.213142
2010-04-22 07:15:02 51°23.206 2°52.636 9.1339 3.341694 30.814958 3.143494
2010-04-22 07:15:07 51°23.226 2°52.632 9.145 3.340007 30.797013 3.10867
2010-04-22 07:15:12 51°23.247 2°52.63 9.151 3.340534 30.800275 3.143494
2010-04-22 07:15:17 51°23.266 2°52.627 9.1562 3.340429 30.798489 3.073846
2010-04-22 07:15:22 51°23.286 2°52.624 9.1538 3.33948 30.789503 3.004198
2010-04-22 07:15:27 51°23.306 2°52.622 9.1562 3.33948 30.789503 3.004198
2010-04-22 07:15:32 51°23.326 2°52.617 9.1592 3.339164 30.783441 3.004198
2010-04-22 07:15:37 51°23.346 2°52.616 9.1596 3.339691 30.783164 2.93455
2010-04-22 07:15:42 51°23.366 2°52.611 9.1593 3.338321 30.769166 2.899726
2010-04-22 07:15:47 51°23.387 2°52.61 9.1657 3.339375 30.77286 2.830078
2010-04-22 07:15:52 51°23.407 2°52.606 9.1591 3.339164 30.765052 2.76043
2010-04-22 07:15:57 51°23.428 2°52.604 9.1578 3.339164 30.765052 2.76043
2010-04-22 07:16:02 51°23.448 2°52.601 9.1572 3.342431 30.794884 2.725606
2010-04-22 07:16:07 51°23.469 2°52.599 9.1572 3.343696 30.803555 2.725606
2010-04-22 07:16:12 51°23.489 2°52.596 9.1614 3.343485 30.799281 2.76043
2010-04-22 07:16:17 51°23.51 2°52.594 9.1602 3.344328 30.805768 2.795254
2010-04-22 07:16:22 51°23.53 2°52.591 9.1629 3.344644 30.808289 2.76043
2010-04-22 07:16:27 51°23.551 2°52.588 9.1652 3.344644 30.808289 2.76043
2010-04-22 07:16:32 51°23.571 2°52.586 9.1671 3.344117 30.800079 2.725606
2010-04-22 07:16:37 51°23.591 2°52.582 9.167 3.343696 30.797896 2.621133
2010-04-22 07:16:42 51°23.611 2°52.58 9.1647 3.34359 30.796113 2.621133
2010-04-22 07:16:47 51°23.632 2°52.576 9.1639 3.341482 30.776713 2.586309
2010-04-22 07:16:52 51°23.653 2°52.575 9.1615 3.341588 30.777082 2.586309
2010-04-22 07:16:57 51°23.673 2°52.572 9.164 3.341588 30.777082 2.586309
2010-04-22 07:17:02 51°23.693 2°52.57 9.1606 3.344223 30.803984 2.621133
2010-04-22 07:17:07 51°23.714 2°52.566 9.1627 3.344855 30.809026 2.621133
2010-04-22 07:17:12 51°23.735 2°52.564 9.1652 3.345488 30.814068 2.621133
2010-04-22 07:17:17 51°23.755 2°52.561 9.1655 3.343274 30.790764 2.551485
2010-04-22 07:17:22 51°23.775 2°52.559 9.1677 3.345171 30.808718 2.551485
2010-04-22 07:17:27 51°23.794 2°52.556 9.1745 3.345171 30.808718 2.551485
2010-04-22 07:17:32 51°23.814 2°52.553 9.1706 3.344328 30.802939 2.551485
2010-04-22 07:17:37 51°23.834 2°52.551 9.1589 3.343485 30.792916 2.516661
2010-04-22 07:17:42 51°23.854 2°52.548 9.1491 3.341799 30.774994 2.481837
2010-04-22 07:17:47 51°23.874 2°52.546 9.1319 3.339058 30.747022 2.447013
2010-04-22 07:17:52 51°23.895 2°52.543 9.117 3.340639 30.763159 2.481837
2010-04-22 07:17:57 51°23.915 2°52.541 9.1069 3.340639 30.763159 2.481837
2010-04-22 07:18:02 51°23.935 2°52.538 9.0948 3.340534 30.760671 2.481837
2010-04-22 07:18:07 51°23.956 2°52.536 9.0879 3.339585 30.749577 2.516661
2010-04-22 07:18:12 51°23.977 2°52.533 9.0884 3.338847 30.742048 2.586309
2010-04-22 07:18:17 51°23.997 2°52.531 9.0895 3.338215 30.739122 2.76043
2010-04-22 07:18:22 51°24.017 2°52.528 9.0852 3.339796 30.760203 3.004198
2010-04-22 07:18:27 51°24.037 2°52.526 9.0891 3.339796 30.760203 3.004198
2010-04-22 07:18:32 51°24.057 2°52.523 9.0939 3.342537 30.797375 3.213142
2010-04-22 07:18:37 51°24.078 2°52.52 9.0969 3.346647 30.852828 3.352439
2010-04-22 07:18:42 51°24.098 2°52.518 9.0956 3.349177 30.890042 3.491735
2010-04-22 07:18:47 51°24.118 2°52.515 9.0893 3.352761 30.935222 3.526559
2010-04-22 07:18:52 51°24.138 2°52.513 9.077 3.350758 30.92185 3.456911
2010-04-22 07:18:57 51°24.158 2°52.511 9.0535 3.350758 30.92185 3.456911
2010-04-22 07:19:02 51°24.178 2°52.508 9.0562 3.352445 30.941239 3.317614
2010-04-22 07:19:07 51°24.198 2°52.506 9.0288 3.35118 30.932569 3.178318
2010-04-22 07:19:12 51°24.219 2°52.503 9.0158 3.350442 30.923596 3.073846
2010-04-22 07:19:17 51°24.239 2°52.501 9.0099 3.348334 30.900606 3.004198
2010-04-22 07:19:22 51°24.26 2°52.498 8.9977 3.350548 30.923963 2.969374
2010-04-22 07:19:27 51°24.28 2°52.495 8.9935 3.350548 30.923963 2.969374
2010-04-22 07:19:32 51°24.3 2°52.492 8.9975 3.349705 30.920316 3.073846
2010-04-22 07:19:37 51°24.32 2°52.489 8.9958 3.352656 30.959069 3.28279
2010-04-22 07:19:42 51°24.341 2°52.487 9.0021 3.354659 30.98956 3.456911
2010-04-22 07:19:47 51°24.361 2°52.484 8.9944 3.357294 31.027982 3.631031
2010-04-22 07:19:52 51°24.381 2°52.482 8.998 3.358348 31.049514 3.631031
2010-04-22 07:19:57 51°24.401 2°52.479 8.9952 3.358348 31.049514 3.631031
2010-04-22 07:20:02 51°24.421 2°52.476 8.9936 3.360878 31.088345 3.596207
2010-04-22 07:20:07 51°24.442 2°52.473 8.9787 3.361616 31.105955 3.456911
2010-04-22 07:20:12 51°24.462 2°52.47 8.9763 3.3613 31.107017 3.247966
2010-04-22 07:20:17 51°24.482 2°52.468 8.966 3.358665 31.085 3.039022
2010-04-22 07:20:22 51°24.502 2°52.465 8.9627 3.356662 31.065885 2.864902
2010-04-22 07:20:27 51°24.522 2°52.462 8.9569 3.356662 31.065885 2.864902
2010-04-22 07:20:32 51°24.543 2°52.46 8.9441 3.353184 31.031629 2.725606
2010-04-22 07:20:37 51°24.563 2°52.458 8.9441 3.3535 31.034873 2.551485
2010-04-22 07:20:42 51°24.583 2°52.456 8.9396 3.350443 31.006377 2.412189
2010-04-22 07:20:47 51°24.603 2°52.453 8.9322 3.350654 31.01355 2.377365
2010-04-22 07:20:52 51°24.623 2°52.45 8.9337 3.348441 30.996563 2.516661
2010-04-22 07:20:57 51°24.643 2°52.448 8.9362 3.348441 30.996563 2.516661
2010-04-22 07:21:02 51°24.663 2°52.445 8.9325 3.349284 31.011661 2.586309
2010-04-22 07:21:07 51°24.683 2°52.443 8.9257 3.353711 31.063563 2.621133
2010-04-22 07:21:12 51°24.703 2°52.441 8.9248 3.353817 31.068952 2.725606
2010-04-22 07:21:17 51°24.723 2°52.438 8.9255 3.355609 31.093103 2.655957
2010-04-22 07:21:22 51°24.743 2°52.436 8.9237 3.355292 31.095603 2.586309
2010-04-22 07:21:27 51°24.763 2°52.434 8.9167 3.355292 31.095603 2.586309
2010-04-22 07:21:32 51°24.783 2°52.431 8.9109 3.358876 31.138187 2.621133
2010-04-22 07:21:37 51°24.804 2°52.43 8.8998 3.355925 31.11217 2.586309
2010-04-22 07:21:42 51°24.824 2°52.427 8.9025 3.35719 31.12661 2.690782
2010-04-22 07:21:47 51°24.844 2°52.425 8.8977 3.358244 31.141046 2.864902
2010-04-22 07:21:52 51°24.864 2°52.423 8.8988 3.362987 31.193425 2.93455
2010-04-22 07:21:57 51°24.884 2°52.419 8.8959 3.362987 31.193425 2.93455
2010-04-22 07:22:02 51°24.904 2°52.418 8.903 3.356979 31.130202 3.10867
2010-04-22 07:22:07 51°24.924 2°52.415 8.9037 3.362777 31.194865 3.247966
2010-04-22 07:22:12 51°24.944 2°52.412 8.9072 3.361406 31.184378 3.456911
2010-04-22 07:22:17 51°24.964 2°52.409 8.9114 3.36752 31.253057 3.665855
2010-04-22 07:22:22 51°24.984 2°52.407 8.9133 3.368469 31.266438 3.770327
2010-04-22 07:22:27 51°25.004 2°52.405 8.9095 3.368469 31.266438 3.770327
2010-04-22 07:22:32 51°25.024 2°52.403 8.9094 3.366888 31.253782 3.735503
2010-04-22 07:22:37 51°25.044 2°52.4 8.9044 3.369312 31.281634 3.631031
2010-04-22 07:22:42 51°25.065 2°52.398 8.9054 3.369734 31.286699 3.526559
2010-04-22 07:22:47 51°25.085 2°52.395 8.9085 3.369734 31.283802 3.352439
2010-04-22 07:22:52 51°25.105 2°52.393 8.9139 3.367731 31.261738 3.247966
2010-04-22 07:22:57 51°25.125 2°52.391 8.9022 3.367731 31.261738 3.247966
2010-04-22 07:23:02 51°25.145 2°52.388 8.9058 3.366677 31.248718 3.178318
2010-04-22 07:23:07 51°25.165 2°52.386 8.9076 3.365096 31.231 3.10867
2010-04-22 07:23:12 51°25.185 2°52.383 8.8946 3.364042 31.220876 3.10867
2010-04-22 07:23:17 51°25.205 2°52.381 8.8944 3.362882 31.208945 3.039022
2010-04-22 07:23:22 51°25.225 2°52.378 8.8908 3.362777 31.209305 3.10867
2010-04-22 07:23:27 51°25.245 2°52.376 8.8863 3.362777 31.209305 3.10867
2010-04-22 07:23:32 51°25.265 2°52.373 8.8881 3.359404 31.173154 3.004198
2010-04-22 07:23:37 51°25.286 2°52.371 8.8773 3.356242 31.141344 2.969374
2010-04-22 07:23:42 51°25.306 2°52.368 8.8661 3.357928 31.159415 2.93455
2010-04-22 07:23:47 51°25.326 2°52.365 8.8604 3.358139 31.164469 2.899726
2010-04-22 07:23:52 51°25.347 2°52.362 8.8439 3.356452 31.14928 2.93455
2010-04-22 07:23:57 51°25.367 2°52.359 8.8372 3.356452 31.14928 2.93455
2010-04-22 07:24:02 51°25.387 2°52.356 8.8286 3.355715 31.146014 2.93455
2010-04-22 07:24:07 51°25.408 2°52.353 8.8183 3.357507 31.168784 2.969374
2010-04-22 07:24:12 51°25.428 2°52.349 8.7916 3.359615 31.19265 3.039022
2010-04-22 07:24:17 51°25.449 2°52.346 8.7626 3.360458 31.207112 3.28279
2010-04-22 07:24:22 51°25.469 2°52.343 8.7493 3.362882 31.237141 3.387263
2010-04-22 07:24:27 51°25.489 2°52.34 8.73 3.362882 31.237141 3.387263
2010-04-22 07:24:31 51°25.505 2°52.337 8.7237 3.364674 31.266464 3.491735
2010-04-22 07:24:37 51°25.53 2°52.333 8.7045 3.364569 31.274076 3.700679
2010-04-22 07:24:42 51°25.55 2°52.33 8.6913 3.368469 31.324444 3.944447
2010-04-22 07:24:47 51°25.57 2°52.327 8.681 3.365096 31.300553 4.22304
2010-04-22 07:24:52 51°25.59 2°52.323 8.6731 3.372054 31.385426 4.606104
2010-04-22 07:24:57 51°25.61 2°52.32 8.6573 3.372054 31.385426 4.606104
2010-04-22 07:25:02 51°25.63 2°52.317 8.6591 3.373951 31.428357 4.919521
2010-04-22 07:25:07 51°25.65 2°52.312 8.6498 3.381857 31.52762 5.128465
2010-04-22 07:25:12 51°25.671 2°52.309 8.641 3.383227 31.557197 5.407058
2010-04-22 07:25:17 51°25.691 2°52.305 8.6324 3.383649 31.576984 5.581178
2010-04-22 07:25:22 51°25.711 2°52.302 8.625 3.389447 31.653209 5.755298
2010-04-22 07:25:27 51°25.731 2°52.298 8.6165 3.389447 31.653209 5.755298
2010-04-22 07:25:32 51°25.75 2°52.295 8.6158 3.390396 31.672625 5.824946
2010-04-22 07:25:37 51°25.77 2°52.292 8.6154 3.388393 31.663674 5.824946
2010-04-22 07:25:42 51°25.79 2°52.289 8.6065 3.393031 31.723585 5.894594
2010-04-22 07:25:47 51°25.809 2°52.286 8.5987 3.391134 31.712779 5.999067
2010-04-22 07:25:52 51°25.83 2°52.282 8.5966 3.394929 31.763261 6.208011
2010-04-22 07:25:57 51°25.849 2°52.279 8.5909 3.394929 31.763261 6.208011
2010-04-22 07:26:02 51°25.869 2°52.276 8.589 3.391029 31.730186 6.416955
2010-04-22 07:26:07 51°25.89 2°52.274 8.5773 3.396827 31.797793 6.660724
2010-04-22 07:26:12 51°25.91 2°52.271 8.5773 3.393664 31.767921 6.904492
2010-04-22 07:26:17 51°25.93 2°52.268 8.5706 3.394613 31.781483 7.183084
2010-04-22 07:26:22 51°25.949 2°52.266 8.5782 3.397881 31.825085 7.461677
2010-04-22 07:26:27 51°25.969 2°52.263 8.5742 3.397881 31.825085 7.461677
2010-04-22 07:26:32 51°25.989 2°52.26 8.5775 3.401254 31.865349 7.775093
2010-04-22 07:26:37 51°26.009 2°52.258 8.5645 3.403257 31.893618 7.949214
2010-04-22 07:26:42 51°26.029 2°52.256 8.565 3.400938 31.873231 8.018862
2010-04-22 07:26:47 51°26.049 2°52.256 8.5662 3.403784 31.910284 8.123334
2010-04-22 07:26:52 51°26.07 2°52.254 8.5739 3.404944 31.926824 8.26263
2010-04-22 07:26:57 51°26.09 2°52.254 8.5624 3.404944 31.926824 8.26263
2010-04-22 07:27:02 51°26.111 2°52.254 8.5488 3.402309 31.902392 8.26263
2010-04-22 07:27:07 51°26.131 2°52.254 8.5531 3.406525 31.945515 8.192982
2010-04-22 07:27:12 51°26.151 2°52.255 8.551 3.403995 31.922179 8.227806
2010-04-22 07:27:17 51°26.171 2°52.255 8.5515 3.407474 31.961366 8.123334
2010-04-22 07:27:22 51°26.192 2°52.255 8.5502 3.401571 31.904414 8.018862
2010-04-22 07:27:27 51°26.212 2°52.255 8.5433 3.401571 31.904414 8.018862
2010-04-22 07:27:32 51°26.232 2°52.256 8.5354 3.407158 31.96256 7.844741
2010-04-22 07:27:37 51°26.253 2°52.256 8.5403 3.406209 31.95418 7.635797
2010-04-22 07:27:42 51°26.274 2°52.256 8.5395 3.406209 31.957918 7.392029
2010-04-22 07:27:47 51°26.294 2°52.256 8.5362 3.404417 31.94599 7.113436
2010-04-22 07:27:52 51°26.314 2°52.256 8.5276 3.40389 31.94125 6.939316
2010-04-22 07:27:57 51°26.335 2°52.256 8.525 3.40389 31.94125 6.939316
2010-04-22 07:28:02 51°26.355 2°52.256 8.5249 3.399885 31.904029 6.80002
2010-04-22 07:28:07 51°26.376 2°52.256 8.5229 3.39746 31.881027 6.6259
2010-04-22 07:28:12 51°26.396 2°52.257 8.5172 3.399779 31.908906 6.556251
2010-04-22 07:28:17 51°26.417 2°52.256 8.5155 3.398303 31.896526 6.451779
2010-04-22 07:28:22 51°26.437 2°52.256 8.515 3.398409 31.900611 6.416955
2010-04-22 07:28:27 51°26.458 2°52.257 8.5102 3.398409 31.900611 6.416955
2010-04-22 07:28:32 51°26.478 2°52.257 8.509 3.396301 31.880149 6.382131
2010-04-22 07:28:37 51°26.498 2°52.257 8.5082 3.396617 31.887923 6.451779
2010-04-22 07:28:42 51°26.519 2°52.258 8.5022 3.399252 31.918362 6.730372
2010-04-22 07:28:47 51°26.539 2°52.258 8.5026 3.393455 31.863196 7.008964
2010-04-22 07:28:52 51°26.559 2°52.258 8.5016 3.401571 31.949258 7.322381
2010-04-22 07:28:57 51°26.579 2°52.258 8.4942 3.401571 31.949258 7.322381
2010-04-22 07:29:02 51°26.6 2°52.258 8.4963 3.401255 31.949705 7.531325
2010-04-22 07:29:07 51°26.62 2°52.259 8.4933 3.39862 31.923737 7.705445
2010-04-22 07:29:12 51°26.64 2°52.258 8.4894 3.403047 31.972877 7.879566
2010-04-22 07:29:17 51°26.66 2°52.259 8.4902 3.40758 32.020883 7.984038
2010-04-22 07:29:22 51°26.68 2°52.259 8.4781 3.401782 31.964935 8.018862
2010-04-22 07:29:27 51°26.701 2°52.259 8.4739 3.401782 31.964935 8.018862
2010-04-22 07:29:32 51°26.721 2°52.259 8.4736 3.410005 32.052174 8.123334
2010-04-22 07:29:37 51°26.741 2°52.259 8.4699 3.408107 32.03614 8.158158
2010-04-22 07:29:42 51°26.762 2°52.259 8.4721 3.402731 31.983822 8.192982
2010-04-22 07:29:47 51°26.782 2°52.259 8.4741 3.407264 32.03185 8.158158
2010-04-22 07:29:52 51°26.802 2°52.258 8.4697 3.406315 32.024957 8.08851
2010-04-22 07:29:57 51°26.822 2°52.259 8.4698 3.406315 32.024957 8.08851
2010-04-22 07:30:02 51°26.843 2°52.259 8.467 3.409478 32.06246 8.08851
2010-04-22 07:30:07 51°26.863 2°52.259 8.4705 3.404313 32.012322 8.053686
2010-04-22 07:30:12 51°26.883 2°52.259 8.4698 3.406632 32.040278 8.018862
2010-04-22 07:30:17 51°26.904 2°52.26 8.4732 3.403996 32.014279 7.949214
2010-04-22 07:30:22 51°26.924 2°52.26 8.4706 3.40368 32.013983 7.91439
2010-04-22 07:30:27 51°26.944 2°52.26 8.475 3.40368 32.013983 7.91439
2010-04-22 07:30:32 51°26.965 2°52.261 8.4724 3.411165 32.092857 7.879566
2010-04-22 07:30:37 51°26.984 2°52.261 8.4755 3.40368 32.015486 7.775093
2010-04-22 07:30:42 51°27.004 2°52.261 8.4838 3.407475 32.058103 7.670621
2010-04-22 07:30:47 51°27.024 2°52.261 8.4756 3.408635 32.068704 7.635797
2010-04-22 07:30:52 51°27.045 2°52.261 8.4705 3.411059 32.094769 7.461677
2010-04-22 07:30:57 51°27.065 2°52.261 8.4758 3.411059 32.094769 7.461677
2010-04-22 07:31:02 51°27.085 2°52.261 8.4832 3.411481 32.097665 7.392029
2010-04-22 07:31:07 51°27.105 2°52.262 8.4771 3.411059 32.093262 7.287557
2010-04-22 07:31:12 51°27.125 2°52.262 8.4771 3.410743 32.088455 7.217908
2010-04-22 07:31:17 51°27.145 2°52.262 8.4759 3.411375 32.094305 7.14826
2010-04-22 07:31:22 51°27.165 2°52.263 8.4773 3.407581 32.055443 7.008964
2010-04-22 07:31:27 51°27.186 2°52.263 8.4726 3.407581 32.055443 7.008964
2010-04-22 07:31:32 51°27.206 2°52.263 8.4796 3.4099 32.078146 6.939316
2010-04-22 07:31:37 51°27.226 2°52.263 8.4706 3.411586 32.095 6.904492
2010-04-22 07:31:42 51°27.246 2°52.264 8.4774 3.408002 32.05834 6.80002
2010-04-22 07:31:47 51°27.266 2°52.264 8.4738 3.409056 32.069343 6.80002
2010-04-22 07:31:52 51°27.286 2°52.264 8.4684 3.411481 32.094652 6.765196
2010-04-22 07:31:57 51°27.306 2°52.265 8.4644 3.411481 32.094652 6.765196
2010-04-22 07:32:02 51°27.326 2°52.265 8.4608 3.409162 32.070443 6.834844
2010-04-22 07:32:07 51°27.346 2°52.265 8.4598 3.41264 32.107511 6.904492
2010-04-22 07:32:12 51°27.366 2°52.266 8.4604 3.4138 32.120371 6.97414
2010-04-22 07:32:17 51°27.386 2°52.266 8.4586 3.414749 32.130277 6.97414
2010-04-22 07:32:22 51°27.407 2°52.267 8.4594 3.414643 32.12993 7.008964
2010-04-22 07:32:27 51°27.427 2°52.266 8.4592 3.414643 32.12993 7.008964
2010-04-22 07:32:32 51°27.447 2°52.267 8.4613 3.415276 32.138043 6.939316
2010-04-22 07:32:37 51°27.467 2°52.267 8.459 3.414749 32.134801 6.80002
2010-04-22 07:32:42 51°27.488 2°52.268 8.4577 3.415065 32.14263 6.660724
2010-04-22 07:32:47 51°27.508 2°52.268 8.4591 3.414011 32.133883 6.6259
2010-04-22 07:32:52 51°27.528 2°52.269 8.4589 3.414854 32.143446 6.556251
2010-04-22 07:32:57 51°27.548 2°52.269 8.462 3.414854 32.143446 6.556251
2010-04-22 07:33:02 51°27.568 2°52.27 8.4678 3.412641 32.121832 6.486603
2010-04-22 07:33:07 51°27.588 2°52.27 8.4671 3.410321 32.098363 6.416955
2010-04-22 07:33:12 51°27.608 2°52.271 8.4731 3.409267 32.087354 6.416955
2010-04-22 07:33:17 51°27.628 2°52.271 8.473 3.410111 32.096915 6.347307
2010-04-22 07:33:22 51°27.648 2°52.271 8.4754 3.413168 32.1296 6.347307
2010-04-22 07:33:27 51°27.668 2°52.272 8.476 3.413168 32.1296 6.347307
2010-04-22 07:33:32 51°27.688 2°52.272 8.4739 3.408635 32.081502 6.486603
2010-04-22 07:33:37 51°27.708 2°52.272 8.4755 3.413484 32.13064 6.660724
2010-04-22 07:33:42 51°27.728 2°52.272 8.4733 3.415592 32.151909 6.730372
2010-04-22 07:33:47 51°27.748 2°52.271 8.4719 3.410743 32.099753 6.80002
2010-04-22 07:33:52 51°27.768 2°52.27 8.4701 3.417279 32.165753 6.834844
2010-04-22 07:33:57 51°27.788 2°52.27 8.4665 3.417279 32.165753 6.834844
2010-04-22 07:34:02 51°27.808 2°52.269 8.4572 3.417911 32.167829 6.869668
2010-04-22 07:34:07 51°27.828 2°52.269 8.4507 3.419387 32.182489 6.904492
2010-04-22 07:34:12 51°27.847 2°52.268 8.4495 3.419492 32.18359 6.869668
2010-04-22 07:34:17 51°27.868 2°52.268 8.4366 3.42023 32.191297 6.869668
2010-04-22 07:34:22 51°27.888 2°52.268 8.4268 3.420125 32.190952 6.869668
2010-04-22 07:34:27 51°27.908 2°52.268 8.419 3.420125 32.190952 6.869668
2010-04-22 07:34:31 51°27.924 2°52.267 8.4109 3.42023 32.191297 6.869668
2010-04-22 07:34:37 51°27.948 2°52.266 8.4067 3.420757 32.199826 7.008964
2010-04-22 07:34:42 51°27.968 2°52.266 8.3962 3.42139 32.210213 7.217908
2010-04-22 07:34:47 51°27.989 2°52.266 8.399 3.421917 32.220258 7.566149
2010-04-22 07:34:52 51°28.009 2°52.266 8.3966 3.423815 32.246144 7.949214
2010-04-22 07:34:57 51°28.029 2°52.265 8.4027 3.423815 32.246144 7.949214
2010-04-22 07:35:02 51°28.049 2°52.265 8.3882 3.426661 32.284237 8.297454
2010-04-22 07:35:07 51°28.069 2°52.265 8.3829 3.428242 32.309121 8.576047
2010-04-22 07:35:12 51°28.089 2°52.264 8.3869 3.430245 32.340712 8.819815
2010-04-22 07:35:17 51°28.109 2°52.264 8.3806 3.43151 32.359275 9.028759
2010-04-22 07:35:22 51°28.129 2°52.263 8.3849 3.432776 32.379367 9.133231
2010-04-22 07:35:27 51°28.149 2°52.263 8.381 3.432776 32.379367 9.133231
2010-04-22 07:35:32 51°28.169 2°52.263 8.378 3.433408 32.39056 9.168055
2010-04-22 07:35:37 51°28.189 2°52.263 8.3762 3.432986 32.387668 9.342176
2010-04-22 07:35:42 51°28.209 2°52.262 8.3777 3.434779 32.41101 9.446648
2010-04-22 07:35:47 51°28.229 2°52.261 8.3782 3.4352 32.418477 9.446648
2010-04-22 07:35:52 51°28.25 2°52.262 8.3795 3.435833 32.429681 9.516296
2010-04-22 07:35:58 51°28.274 2°52.261 8.3748 3.435833 32.429681 9.516296
2010-04-22 07:36:02 51°28.29 2°52.261 8.3698 3.436044 32.434943 9.55112
2010-04-22 07:36:07 51°28.31 2°52.26 8.371 3.435306 32.428737 9.620768
2010-04-22 07:36:12 51°28.33 2°52.26 8.3687 3.436676 32.445388 9.585944
2010-04-22 07:36:17 51°28.351 2°52.259 8.3655 3.436466 32.444706 9.55112
2010-04-22 07:36:22 51°28.371 2°52.259 8.3686 3.436887 32.450653 9.585944
2010-04-22 07:36:27 51°28.391 2°52.259 8.3669 3.436887 32.450653 9.585944
2010-04-22 07:36:32 51°28.412 2°52.258 8.3633 3.436782 32.450312 9.655592
2010-04-22 07:36:37 51°28.432 2°52.258 8.365 3.434463 32.426768 9.72524
2010-04-22 07:36:42 51°28.452 2°52.258 8.3639 3.436993 32.455578 9.72524
2010-04-22 07:36:47 51°28.472 2°52.258 8.3567 3.436993 32.45787 9.690416
2010-04-22 07:36:52 51°28.493 2°52.258 8.3575 3.436782 32.45566 9.72524
2010-04-22 07:36:57 51°28.512 2°52.257 8.3644 3.436782 32.45566 9.72524
2010-04-22 07:37:02 51°28.532 2°52.258 8.3624 3.437836 32.469769 9.760064
2010-04-22 07:37:07 51°28.552 2°52.258 8.3635 3.436044 32.453273 9.794888
2010-04-22 07:37:12 51°28.573 2°52.258 8.3572 3.43636 32.456589 9.760064
2010-04-22 07:37:17 51°28.592 2°52.258 8.3551 3.436887 32.462879 9.829713
2010-04-22 07:37:22 51°28.613 2°52.259 8.356 3.437098 32.465855 9.864537
2010-04-22 07:37:27 51°28.633 2°52.258 8.3536 3.437098 32.465855 9.864537
2010-04-22 07:37:31 51°28.649 2°52.258 8.3543 3.43383 32.433882 9.899361
2010-04-22 07:37:37 51°28.673 2°52.258 8.3555 3.437942 32.479287 9.934185
2010-04-22 07:37:42 51°28.693 2°52.258 8.3538 3.436887 32.465173 9.969009
2010-04-22 07:37:47 51°28.713 2°52.257 8.3532 3.434779 32.44383 10.038657
2010-04-22 07:37:52 51°28.733 2°52.257 8.3553 3.437942 32.480052 10.177953
2010-04-22 07:37:57 51°28.753 2°52.257 8.3528 3.437942 32.480052 10.177953
2010-04-22 07:38:02 51°28.773 2°52.257 8.3551 3.43868 32.488556 10.247601
2010-04-22 07:38:07 51°28.793 2°52.257 8.3558 3.438258 32.484134 10.421721
2010-04-22 07:38:12 51°28.813 2°52.258 8.3489 3.438152 32.483793 10.49137
2010-04-22 07:38:17 51°28.833 2°52.257 8.3558 3.438152 32.485324 10.561018
2010-04-22 07:38:22 51°28.853 2°52.258 8.3503 3.438047 32.484983 10.595842
2010-04-22 07:38:27 51°28.873 2°52.258 8.3477 3.438047 32.484983 10.595842
2010-04-22 07:38:32 51°28.893 2°52.259 8.3441 3.439628 32.50157 10.595842
2010-04-22 07:38:37 51°28.914 2°52.259 8.3434 3.437309 32.477243 10.630666
2010-04-22 07:38:42 51°28.934 2°52.259 8.3447 3.438574 32.489747 10.630666
2010-04-22 07:38:47 51°28.954 2°52.26 8.3415 3.44005 32.505993 10.595842
2010-04-22 07:38:52 51°28.974 2°52.26 8.3461 3.43868 32.493914 10.421721
2010-04-22 07:38:57 51°28.995 2°52.26 8.3483 3.43868 32.493914 10.421721
2010-04-22 07:39:02 51°29.015 2°52.26 8.3537 3.44142 32.522668 10.282425
2010-04-22 07:39:07 51°29.035 2°52.26 8.3534 3.438574 32.494339 9.969009
2010-04-22 07:39:12 51°29.055 2°52.26 8.3528 3.438258 32.493318 9.72524
2010-04-22 07:39:17 51°29.075 2°52.26 8.3506 3.438363 32.496721 9.446648
2010-04-22 07:39:22 51°29.095 2°52.26 8.3474 3.436888 32.482003 9.237704
2010-04-22 07:39:27 51°29.115 2°52.26 8.3443 3.436888 32.482003 9.237704
2010-04-22 07:39:32 51°29.136 2°52.26 8.3448 3.437204 32.486086 9.063583
2010-04-22 07:39:37 51°29.156 2°52.26 8.3392 3.435623 32.467966 8.819815
2010-04-22 07:39:42 51°29.176 2°52.26 8.3396 3.434674 32.45419 8.645695
2010-04-22 07:39:47 51°29.197 2°52.26 8.3311 3.435939 32.467459 8.506398
2010-04-22 07:39:52 51°29.217 2°52.26 8.3398 3.432776 32.433524 8.367102
2010-04-22 07:39:57 51°29.238 2°52.26 8.3325 3.432776 32.433524 8.367102
2010-04-22 07:40:02 51°29.258 2°52.26 8.3249 3.435833 32.467118 8.158158
2010-04-22 07:40:07 51°29.279 2°52.261 8.3274 3.435412 32.46346 7.949214
2010-04-22 07:40:12 51°29.299 2°52.26 8.3283 3.433198 32.443297 7.670621
2010-04-22 07:40:17 51°29.319 2°52.261 8.3218 3.432671 32.440061 7.357205
2010-04-22 07:40:22 51°29.34 2°52.26 8.3257 3.430141 32.415814 7.043788
2010-04-22 07:40:27 51°29.36 2°52.26 8.3221 3.430141 32.415814 7.043788
2010-04-22 07:40:31 51°29.377 2°52.26 8.3272 3.427716 32.391909 6.834844
2010-04-22 07:40:37 51°29.401 2°52.26 8.3243 3.426135 32.376087 6.556251
2010-04-22 07:40:42 51°29.421 2°52.26 8.3262 3.42487 32.364344 6.312483
2010-04-22 07:40:47 51°29.441 2°52.26 8.3212 3.426768 32.388064 6.173187
2010-04-22 07:40:52 51°29.461 2°52.26 8.3254 3.423394 32.354967 5.964243
2010-04-22 07:40:57 51°29.482 2°52.26 8.3268 3.423394 32.354967 5.964243
2010-04-22 07:41:02 51°29.502 2°52.259 8.3267 3.423394 32.356492 5.824946
2010-04-22 07:41:07 51°29.523 2°52.258 8.334 3.422024 32.343642 5.68565
2010-04-22 07:41:12 51°29.544 2°52.259 8.3312 3.424659 32.372052 5.51153
2010-04-22 07:41:17 51°29.564 2°52.258 8.3309 3.422024 32.344404 5.441882
2010-04-22 07:41:22 51°29.584 2°52.258 8.3304 3.421708 32.341849 5.198113
2010-04-22 07:41:27 51°29.604 2°52.258 8.3327 3.421708 32.341849 5.198113
2010-04-22 07:41:32 51°29.625 2°52.257 8.3338 3.420443 32.329342 5.093641
2010-04-22 07:41:37 51°29.645 2°52.257 8.3373 3.420864 32.33224 4.954345
2010-04-22 07:41:42 51°29.666 2°52.257 8.3375 3.419283 32.314892 4.815049
2010-04-22 07:41:47 51°29.686 2°52.257 8.3336 3.418862 32.308184 4.606104
2010-04-22 07:41:52 51°29.706 2°52.257 8.3338 3.417175 32.288973 4.501632
2010-04-22 07:41:57 51°29.727 2°52.256 8.3383 3.417175 32.288973 4.501632
2010-04-22 07:42:02 51°29.748 2°52.257 8.3379 3.41591 32.275708 4.362336
2010-04-22 07:42:07 51°29.768 2°52.256 8.346 3.415067 32.265344 4.327512
2010-04-22 07:42:12 51°29.788 2°52.257 8.3439 3.41338 32.246901 4.257864
2010-04-22 07:42:17 51°29.809 2°52.255 8.3504 3.415277 32.264513 4.257864
2010-04-22 07:42:22 51°29.829 2°52.257 8.3465 3.41475 32.259747 4.22304
2010-04-22 07:42:27 51°29.85 2°52.256 8.3457 3.41475 32.259747 4.22304
2010-04-22 07:42:32 51°29.87 2°52.257 8.3487 3.416648 32.280402 4.083744
2010-04-22 07:42:37 51°29.891 2°52.256 8.3487 3.414434 32.255672 3.909623
2010-04-22 07:42:42 51°29.912 2°52.256 8.3489 3.415488 32.264442 3.839975
2010-04-22 07:42:47 51°29.932 2°52.256 8.3511 3.413485 32.241166 3.735503
2010-04-22 07:42:52 51°29.952 2°52.256 8.3521 3.415383 32.258775 3.700679
2010-04-22 07:42:57 51°29.973 2°52.256 8.3508 3.415383 32.258775 3.700679
2010-04-22 07:43:02 51°29.993 2°52.255 8.35 3.415383 32.258015 3.561383
2010-04-22 07:43:07 51°30.013 2°52.256 8.3477 3.416015 32.264645 3.491735
2010-04-22 07:43:12 51°30.034 2°52.255 8.3514 3.415804 32.261675 3.526559
2010-04-22 07:43:17 51°30.054 2°52.255 8.3506 3.414961 32.250556 3.665855
2010-04-22 07:43:22 51°30.075 2°52.255 8.3499 3.417175 32.274518 3.839975
2010-04-22 07:43:27 51°30.095 2°52.254 8.3501 3.417175 32.274518 3.839975
2010-04-22 07:43:31 51°30.111 2°52.255 8.3521 3.416437 32.265263 4.014096
2010-04-22 07:43:37 51°30.135 2°52.255 8.3506 3.415699 32.25677 4.014096
2010-04-22 07:43:42 51°30.155 2°52.255 8.3521 3.421497 32.317541 4.014096
2010-04-22 07:43:47 51°30.175 2°52.256 8.351 3.421497 32.319064 4.014096
2010-04-22 07:43:52 51°30.195 2°52.255 8.3527 3.420337 32.305385 4.014096
2010-04-22 07:43:57 51°30.216 2°52.255 8.3509 3.420337 32.305385 4.014096
2010-04-22 07:44:02 51°30.236 2°52.254 8.3533 3.420232 32.303519 3.909623
2010-04-22 07:44:07 51°30.257 2°52.255 8.3521 3.422972 32.332251 3.839975
2010-04-22 07:44:12 51°30.277 2°52.254 8.3524 3.42118 32.314987 3.735503
2010-04-22 07:44:17 51°30.298 2°52.254 8.354 3.419599 32.29765 3.700679
2010-04-22 07:44:22 51°30.318 2°52.254 8.3502 3.415593 32.255665 3.596207
2010-04-22 07:44:27 51°30.339 2°52.253 8.3489 3.415593 32.255665 3.596207
2010-04-22 07:44:32 51°30.36 2°52.253 8.3474 3.415488 32.25532 3.561383
2010-04-22 07:44:37 51°30.381 2°52.252 8.3474 3.41865 32.287706 3.526559
2010-04-22 07:44:42 51°30.401 2°52.252 8.3461 3.41728 32.273342 3.422087
2010-04-22 07:44:47 51°30.422 2°52.252 8.3445 3.418229 32.282525 3.387263
2010-04-22 07:44:52 51°30.442 2°52.252 8.3406 3.412958 32.227288 3.28279
2010-04-22 07:44:58 51°30.467 2°52.252 8.3409 3.412958 32.227288 3.28279
2010-04-22 07:45:02 51°30.484 2°52.252 8.3404 3.416858 32.267402 3.178318
2010-04-22 07:45:07 51°30.505 2°52.251 8.3347 3.414118 32.240198 3.143494
2010-04-22 07:45:12 51°30.525 2°52.252 8.3356 3.415172 32.252006 3.213142
2010-04-22 07:45:17 51°30.546 2°52.251 8.3337 3.411904 32.219278 3.213142
2010-04-22 07:45:22 51°30.567 2°52.251 8.3298 3.415804 32.260915 3.143494
2010-04-22 07:45:27 51°30.588 2°52.251 8.3319 3.415804 32.260915 3.143494
2010-04-22 07:45:32 51°30.609 2°52.25 8.3258 3.412642 32.230808 3.10867
2010-04-22 07:45:37 51°30.629 2°52.25 8.3275 3.413907 32.244066 3.143494
2010-04-22 07:45:42 51°30.65 2°52.25 8.3208 3.411588 32.221278 3.143494
2010-04-22 07:45:47 51°30.67 2°52.249 8.3227 3.41085 32.216581 3.213142
2010-04-22 07:45:52 51°30.691 2°52.25 8.3267 3.410955 32.218446 3.213142
2010-04-22 07:45:57 51°30.712 2°52.249 8.3266 3.410955 32.218446 3.213142
2010-04-22 07:46:02 51°30.732 2°52.25 8.3267 3.415699 32.271216 3.247966
2010-04-22 07:46:07 51°30.752 2°52.249 8.3268 3.409374 32.204908 3.213142
2010-04-22 07:46:12 51°30.773 2°52.249 8.328 3.411482 32.228528 3.213142
2010-04-22 07:46:17 51°30.793 2°52.248 8.3291 3.414961 32.268042 3.213142
2010-04-22 07:46:22 51°30.813 2°52.249 8.3301 3.416542 32.286907 3.387263
2010-04-22 07:46:27 51°30.833 2°52.248 8.3269 3.416542 32.286907 3.387263
2010-04-22 07:46:32 51°30.854 2°52.248 8.3316 3.413591 32.256714 3.770327
2010-04-22 07:46:37 51°30.874 2°52.249 8.3321 3.420021 32.323394 4.153392
2010-04-22 07:46:42 51°30.894 2°52.248 8.3289 3.421919 32.342536 4.640929
2010-04-22 07:46:47 51°30.913 2°52.249 8.3284 3.428033 32.406683 5.058817
2010-04-22 07:46:52 51°30.93 2°52.248 8.3242 3.434147 32.469317 5.372234
2010-04-22 07:46:57 51°30.947 2°52.249 8.3207 3.434147 32.469317 5.372234